Time,TemperatureF,DewpointF,PressureIn,WindDirection,WindDirectionDegrees,WindSpeedMPH,WindSpeedGustMPH,Humidity,HourlyPrecipIn,Conditions,Clouds,dailyrainin,SoftwareType,DateUTC
2013-06-03 00:01:00,79.5,75.9,29.98,SW,225,4.0,8.0,89,0.30,,,23.27,meteohub,2013-06-03 04:01:00,
2013-06-03 00:02:00,79.5,75.9,29.98,SW,225,4.0,8.0,89,0.30,,,23.27,meteohub,2013-06-03 04:02:00,
2013-06-03 00:03:00,79.5,75.9,29.98,SW,225,2.0,8.0,89,0.30,,,23.27,meteohub,2013-06-03 04:03:00,
2013-06-03 00:06:00,79.5,76.3,29.98,SW,225,6.0,6.0,90,0.28,,,0.00,meteohub,2013-06-03 04:06:00,
2013-06-03 00:08:00,79.5,76.3,29.98,SW,225,6.0,6.0,90,0.28,,,0.00,meteohub,2013-06-03 04:08:00,
2013-06-03 00:09:00,79.5,76.3,29.97,NW,315,3.0,4.0,90,0.28,,,0.00,meteohub,2013-06-03 04:09:00,
2013-06-03 00:11:00,79.5,76.3,29.98,SW,225,3.0,6.0,90,0.30,,,0.01,meteohub,2013-06-03 04:11:00,
2013-06-03 00:12:00,79.5,76.3,29.97,South,180,3.0,6.0,90,0.30,,,0.01,meteohub,2013-06-03 04:12:00,
2013-06-03 00:14:00,79.5,76.3,29.97,SW,225,3.0,6.0,90,0.30,,,0.01,meteohub,2013-06-03 04:14:00,
2013-06-03 00:15:00,79.5,76.3,29.98,SW,225,4.0,6.0,90,0.30,,,0.01,meteohub,2013-06-03 04:15:00,
2013-06-03 00:17:00,79.5,76.3,29.97,South,180,3.0,6.0,90,0.17,,,0.01,meteohub,2013-06-03 04:17:00,
2013-06-03 00:20:00,79.5,76.3,29.97,South,180,2.0,6.0,90,0.08,,,0.01,meteohub,2013-06-03 04:20:00,
2013-06-03 00:21:00,79.5,76.3,29.97,South,180,2.0,6.0,90,0.08,,,0.01,meteohub,2013-06-03 04:21:00,
2013-06-03 00:22:00,79.5,76.3,29.97,SW,225,4.0,6.0,90,0.08,,,0.01,meteohub,2013-06-03 04:22:00,
2013-06-03 00:23:00,79.5,76.3,29.97,SW,225,2.0,6.0,90,0.08,,,0.01,meteohub,2013-06-03 04:23:00,
2013-06-03 00:26:00,79.5,76.3,29.97,SW,225,5.0,6.0,90,0.08,,,0.01,meteohub,2013-06-03 04:26:00,
2013-06-03 00:27:00,79.5,76.3,29.97,SW,225,6.0,6.0,90,0.08,,,0.01,meteohub,2013-06-03 04:27:00,
2013-06-03 00:28:00,79.5,76.3,29.97,SW,225,6.0,6.0,90,0.08,,,0.01,meteohub,2013-06-03 04:28:00,
2013-06-03 00:32:00,79.5,76.3,29.97,South,180,7.0,7.0,90,0.08,,,0.01,meteohub,2013-06-03 04:32:00,
2013-06-03 00:33:00,79.5,76.3,29.97,South,180,4.0,6.0,90,0.08,,,0.01,meteohub,2013-06-03 04:33:00,
2013-06-03 00:35:00,79.5,76.3,29.97,South,180,5.0,7.0,90,0.08,,,0.01,meteohub,2013-06-03 04:35:00,
2013-06-03 00:38:00,79.5,76.3,29.96,SW,225,4.0,7.0,90,0.08,,,0.01,meteohub,2013-06-03 04:38:00,
2013-06-03 00:39:00,79.5,76.3,29.96,SW,225,4.0,7.0,90,0.08,,,0.01,meteohub,2013-06-03 04:39:00,
2013-06-03 00:40:00,79.5,76.3,29.97,SE,135,3.0,7.0,90,0.08,,,0.01,meteohub,2013-06-03 04:40:00,
2013-06-03 00:41:00,79.5,76.3,29.96,SW,225,3.0,7.0,90,0.08,,,0.01,meteohub,2013-06-03 04:41:00,
2013-06-03 00:42:00,79.5,76.3,29.96,SW,225,3.0,7.0,90,0.08,,,0.01,meteohub,2013-06-03 04:42:00,
2013-06-03 00:46:00,79.5,76.3,29.97,West,270,5.0,7.0,90,0.06,,,0.01,meteohub,2013-06-03 04:46:00,
2013-06-03 00:47:00,79.5,76.3,29.97,SW,225,3.0,7.0,90,0.06,,,0.01,meteohub,2013-06-03 04:47:00,
2013-06-03 00:50:00,79.7,76.5,29.97,SW,225,3.0,7.0,90,0.06,,,0.01,meteohub,2013-06-03 04:50:00,
2013-06-03 00:52:00,79.7,76.5,29.97,West,270,2.0,7.0,90,0.06,,,0.01,meteohub,2013-06-03 04:52:00,
2013-06-03 00:54:00,79.7,76.5,29.97,North,0,3.0,7.0,90,0.06,,,0.01,meteohub,2013-06-03 04:54:00,
2013-06-03 00:57:00,79.5,76.3,29.97,SW,225,7.0,7.0,90,0.05,,,0.05,meteohub,2013-06-03 04:57:00,
2013-06-03 00:58:00,79.7,76.5,29.97,SE,135,4.0,7.0,90,0.05,,,0.05,meteohub,2013-06-03 04:58:00,
2013-06-03 00:59:00,79.7,76.5,29.97,NE,45,4.0,7.0,90,0.05,,,0.05,meteohub,2013-06-03 04:59:00,
2013-06-03 01:00:00,79.5,76.3,29.97,SE,135,5.0,8.0,90,0.06,,,0.06,meteohub,2013-06-03 05:00:00,
2013-06-03 01:01:00,79.7,76.5,29.97,SW,225,6.0,8.0,90,0.06,,,0.06,meteohub,2013-06-03 05:01:00,
2013-06-03 01:03:00,79.5,75.9,29.96,South,180,3.0,8.0,89,0.06,,,0.06,meteohub,2013-06-03 05:03:00,
2013-06-03 01:05:00,79.5,75.9,29.97,SW,225,4.0,8.0,89,0.06,,,0.06,meteohub,2013-06-03 05:05:00,
2013-06-03 01:06:00,79.5,75.9,29.96,SE,135,7.0,8.0,89,0.06,,,0.06,meteohub,2013-06-03 05:06:00,
2013-06-03 01:10:00,79.5,75.9,29.96,SW,225,2.0,7.0,89,0.05,,,0.06,meteohub,2013-06-03 05:10:00,
2013-06-03 01:11:00,79.5,75.9,29.96,SW,225,4.0,7.0,89,0.05,,,0.06,meteohub,2013-06-03 05:11:00,
2013-06-03 01:12:00,79.5,75.9,29.96,SW,225,3.0,7.0,89,0.05,,,0.06,meteohub,2013-06-03 05:12:00,
2013-06-03 01:13:00,79.5,75.9,29.96,South,180,2.0,7.0,89,0.05,,,0.06,meteohub,2013-06-03 05:13:00,
2013-06-03 01:17:00,79.3,76.1,29.96,SW,225,3.0,7.0,90,0.05,,,0.06,meteohub,2013-06-03 05:17:00,
2013-06-03 01:18:00,79.3,76.1,29.96,SW,225,4.0,7.0,90,0.05,,,0.06,meteohub,2013-06-03 05:18:00,
2013-06-03 01:19:00,79.3,76.1,29.96,NW,315,4.0,7.0,90,0.05,,,0.06,meteohub,2013-06-03 05:19:00,
2013-06-03 01:23:00,79.3,76.1,29.96,South,180,3.0,7.0,90,0.05,,,0.06,meteohub,2013-06-03 05:23:00,
2013-06-03 01:24:00,79.3,76.1,29.96,SW,225,3.0,7.0,90,0.05,,,0.06,meteohub,2013-06-03 05:24:00,
2013-06-03 01:25:00,79.3,76.1,29.96,SE,135,3.0,5.0,90,0.05,,,0.06,meteohub,2013-06-03 05:25:00,
2013-06-03 01:26:00,79.3,76.1,29.96,South,180,5.0,5.0,90,0.05,,,0.06,meteohub,2013-06-03 05:26:00,
2013-06-03 01:30:00,79.3,76.1,29.96,South,180,1.0,5.0,90,0.05,,,0.06,meteohub,2013-06-03 05:30:00,
2013-06-03 01:31:00,79.3,76.1,29.96,SW,225,1.0,5.0,90,0.05,,,0.06,meteohub,2013-06-03 05:31:00,
2013-06-03 01:32:00,79.3,76.1,29.96,SW,225,4.0,5.0,90,0.05,,,0.06,meteohub,2013-06-03 05:32:00,
2013-06-03 01:33:00,79.3,76.5,29.96,SW,225,4.0,5.0,91,0.05,,,0.06,meteohub,2013-06-03 05:33:00,
2013-06-03 01:37:00,79.3,76.5,29.95,SW,225,2.0,5.0,91,0.05,,,0.06,meteohub,2013-06-03 05:37:00,
2013-06-03 01:38:00,79.3,76.5,29.96,SW,225,2.0,5.0,91,0.05,,,0.06,meteohub,2013-06-03 05:38:00,
2013-06-03 01:39:00,79.3,76.5,29.96,SW,225,2.0,5.0,91,0.05,,,0.06,meteohub,2013-06-03 05:39:00,
2013-06-03 01:40:00,79.3,76.5,29.96,NE,45,1.0,5.0,91,0.05,,,0.06,meteohub,2013-06-03 05:40:00,
2013-06-03 01:44:00,79.3,76.5,29.96,SW,225,2.0,5.0,91,0.05,,,0.06,meteohub,2013-06-03 05:44:00,
2013-06-03 01:45:00,79.2,76.3,29.96,SW,225,2.0,4.0,91,0.05,,,0.06,meteohub,2013-06-03 05:45:00,
2013-06-03 01:46:00,79.2,76.3,29.96,South,180,2.0,4.0,91,0.05,,,0.06,meteohub,2013-06-03 05:46:00,
2013-06-03 01:47:00,79.2,76.3,29.96,South,180,2.0,4.0,91,0.05,,,0.06,meteohub,2013-06-03 05:47:00,
2013-06-03 01:52:00,79.3,76.8,29.96,SE,135,4.0,4.0,92,0.04,,,0.06,meteohub,2013-06-03 05:52:00,
2013-06-03 01:53:00,79.3,76.8,29.96,SW,225,4.0,4.0,92,0.04,,,0.06,meteohub,2013-06-03 05:53:00,
2013-06-03 01:57:00,79.2,76.6,29.96,SW,225,4.0,4.0,92,0.01,,,0.06,meteohub,2013-06-03 05:57:00,
2013-06-03 01:59:00,79.2,76.6,29.96,South,180,6.0,6.0,92,0.01,,,0.06,meteohub,2013-06-03 05:59:00,
2013-06-03 02:00:00,79.2,76.3,29.96,South,180,4.0,4.0,91,0.00,,,0.06,meteohub,2013-06-03 06:00:00,
2013-06-03 02:01:00,79.2,76.3,29.96,South,180,4.0,4.0,91,0.00,,,0.06,meteohub,2013-06-03 06:01:00,
2013-06-03 02:03:00,79.2,76.3,29.96,SW,225,3.0,4.0,91,0.00,,,0.06,meteohub,2013-06-03 06:03:00,
2013-06-03 02:05:00,79.2,76.3,29.96,SW,225,3.0,6.0,91,0.00,,,0.06,meteohub,2013-06-03 06:05:00,
2013-06-03 02:06:00,79.2,76.3,29.96,SW,225,2.0,6.0,91,0.00,,,0.06,meteohub,2013-06-03 06:06:00,
2013-06-03 02:07:00,79.2,76.3,29.96,SW,225,3.0,6.0,91,0.00,,,0.06,meteohub,2013-06-03 06:07:00,
2013-06-03 02:08:00,79.2,76.3,29.96,West,270,3.0,6.0,91,0.00,,,0.06,meteohub,2013-06-03 06:08:00,
2013-06-03 02:10:00,79.2,76.3,29.96,SW,225,2.0,6.0,91,0.00,,,0.06,meteohub,2013-06-03 06:10:00,
2013-06-03 02:11:00,79.2,76.3,29.96,South,180,1.0,6.0,91,0.00,,,0.06,meteohub,2013-06-03 06:11:00,
2013-06-03 02:12:00,79.2,76.3,29.95,South,180,3.0,6.0,91,0.00,,,0.06,meteohub,2013-06-03 06:12:00,
2013-06-03 02:13:00,79.2,76.3,29.96,SW,225,1.0,6.0,91,0.00,,,0.06,meteohub,2013-06-03 06:13:00,
2013-06-03 02:14:00,79.2,76.3,29.95,SW,225,2.0,6.0,91,0.00,,,0.06,meteohub,2013-06-03 06:14:00,
2013-06-03 02:17:00,79.2,76.3,29.95,WNW,293,2.0,4.0,91,0.00,,,0.06,meteohub,2013-06-03 06:17:00,
2013-06-03 02:19:00,79.2,76.3,29.96,SW,225,1.0,4.0,91,0.00,,,0.06,meteohub,2013-06-03 06:19:00,
2013-06-03 02:20:00,79.2,76.3,29.96,South,180,1.0,3.0,91,0.00,,,0.06,meteohub,2013-06-03 06:20:00,
2013-06-03 02:22:00,79.2,76.3,29.96,West,270,2.0,3.0,91,0.00,,,0.06,meteohub,2013-06-03 06:22:00,
2013-06-03 02:24:00,79.0,76.1,29.96,SW,225,2.0,3.0,91,0.00,,,0.06,meteohub,2013-06-03 06:24:00,
2013-06-03 02:26:00,79.0,76.1,29.95,South,180,1.0,3.0,91,0.00,,,0.06,meteohub,2013-06-03 06:26:00,
2013-06-03 02:27:00,79.0,76.1,29.95,SW,225,1.0,3.0,91,0.00,,,0.06,meteohub,2013-06-03 06:27:00,
2013-06-03 02:28:00,79.0,76.1,29.95,SW,225,2.0,3.0,91,0.00,,,0.06,meteohub,2013-06-03 06:28:00,
2013-06-03 02:30:00,79.0,76.1,29.95,SW,225,2.0,3.0,91,0.00,,,0.06,meteohub,2013-06-03 06:30:00,
2013-06-03 02:32:00,79.0,76.1,29.95,SW,225,2.0,3.0,91,0.00,,,0.06,meteohub,2013-06-03 06:32:00,
2013-06-03 02:33:00,79.0,76.1,29.96,SW,225,2.0,3.0,91,0.00,,,0.06,meteohub,2013-06-03 06:33:00,
2013-06-03 02:36:00,79.0,76.1,29.95,South,180,2.0,3.0,91,0.00,,,0.06,meteohub,2013-06-03 06:36:00,
2013-06-03 02:37:00,79.0,76.1,29.95,South,180,2.0,3.0,91,0.00,,,0.06,meteohub,2013-06-03 06:37:00,
2013-06-03 02:38:00,79.0,76.1,29.95,South,180,2.0,3.0,91,0.00,,,0.06,meteohub,2013-06-03 06:38:00,
2013-06-03 02:39:00,79.0,76.1,29.95,South,180,2.0,3.0,91,0.00,,,0.06,meteohub,2013-06-03 06:39:00,
2013-06-03 02:42:00,79.0,76.1,29.95,South,180,2.0,2.0,91,0.00,,,0.06,meteohub,2013-06-03 06:42:00,
2013-06-03 02:44:00,78.8,75.9,29.95,SW,225,1.0,2.0,91,0.00,,,0.06,meteohub,2013-06-03 06:44:00,
2013-06-03 02:45:00,78.8,75.9,29.95,SW,225,2.0,2.0,91,0.01,,,0.07,meteohub,2013-06-03 06:45:00,
2013-06-03 02:46:00,78.6,76.1,29.95,West,270,2.0,2.0,92,0.01,,,0.07,meteohub,2013-06-03 06:46:00,
2013-06-03 02:47:00,78.6,76.1,29.95,SW,225,2.0,2.0,92,0.01,,,0.07,meteohub,2013-06-03 06:47:00,
2013-06-03 02:49:00,78.6,76.1,29.95,SW,225,2.0,2.0,92,0.01,,,0.07,meteohub,2013-06-03 06:49:00,
2013-06-03 02:51:00,78.6,76.1,29.95,East,90,3.0,3.0,92,0.05,,,0.11,meteohub,2013-06-03 06:51:00,
2013-06-03 02:52:00,78.6,76.1,29.95,SW,225,0.0,2.0,92,0.05,,,0.11,meteohub,2013-06-03 06:52:00,
2013-06-03 02:55:00,78.4,75.9,29.94,SW,225,2.0,3.0,92,0.06,,,0.12,meteohub,2013-06-03 06:55:00,
2013-06-03 02:57:00,78.4,75.9,29.95,SW,225,3.0,3.0,92,0.06,,,0.12,meteohub,2013-06-03 06:57:00,
2013-06-03 02:58:00,78.4,75.9,29.95,SW,225,4.0,4.0,92,0.06,,,0.12,meteohub,2013-06-03 06:58:00,
2013-06-03 03:00:00,78.4,75.9,29.94,SW,225,3.0,4.0,92,0.08,,,0.14,meteohub,2013-06-03 07:00:00,
2013-06-03 03:01:00,78.4,75.9,29.94,SW,225,3.0,4.0,92,0.08,,,0.14,meteohub,2013-06-03 07:01:00,
2013-06-03 03:04:00,78.4,75.6,29.94,SW,225,2.0,4.0,91,0.08,,,0.14,meteohub,2013-06-03 07:04:00,
2013-06-03 03:06:00,78.4,75.6,29.94,SW,225,4.0,4.0,91,0.09,,,0.15,meteohub,2013-06-03 07:06:00,
2013-06-03 03:08:00,78.4,75.6,29.94,SW,225,2.0,4.0,91,0.09,,,0.15,meteohub,2013-06-03 07:08:00,
2013-06-03 03:12:00,78.4,75.6,29.94,SW,225,4.0,4.0,91,0.09,,,0.15,meteohub,2013-06-03 07:12:00,
2013-06-03 03:13:00,78.4,75.6,29.94,South,180,3.0,4.0,91,0.09,,,0.15,meteohub,2013-06-03 07:13:00,
2013-06-03 03:15:00,78.6,75.7,29.94,West,270,1.0,4.0,91,0.09,,,0.15,meteohub,2013-06-03 07:15:00,
2013-06-03 03:17:00,78.6,75.7,29.94,SW,225,0.0,4.0,91,0.09,,,0.15,meteohub,2013-06-03 07:17:00,
2013-06-03 03:18:00,78.6,75.7,29.94,SW,225,2.0,4.0,91,0.09,,,0.15,meteohub,2013-06-03 07:18:00,
2013-06-03 03:19:00,78.6,75.7,29.94,NW,315,1.0,4.0,91,0.09,,,0.15,meteohub,2013-06-03 07:19:00,
2013-06-03 03:22:00,78.4,75.6,29.94,NW,315,2.0,4.0,91,0.09,,,0.15,meteohub,2013-06-03 07:22:00,
2013-06-03 03:23:00,78.4,75.6,29.94,SW,225,3.0,4.0,91,0.09,,,0.15,meteohub,2013-06-03 07:23:00,
2013-06-03 03:24:00,78.4,75.6,29.94,SW,225,3.0,4.0,91,0.09,,,0.15,meteohub,2013-06-03 07:24:00,
2013-06-03 03:25:00,78.4,75.6,29.94,SW,225,4.0,4.0,91,0.09,,,0.15,meteohub,2013-06-03 07:25:00,
2013-06-03 03:27:00,78.6,75.7,29.94,SW,225,2.0,4.0,91,0.09,,,0.15,meteohub,2013-06-03 07:27:00,
2013-06-03 03:29:00,78.6,75.7,29.94,SE,135,2.0,4.0,91,0.09,,,0.15,meteohub,2013-06-03 07:29:00,
2013-06-03 03:30:00,78.6,75.7,29.94,South,180,2.0,4.0,91,0.09,,,0.15,meteohub,2013-06-03 07:30:00,
2013-06-03 03:31:00,78.6,75.7,29.94,East,90,1.0,4.0,91,0.09,,,0.15,meteohub,2013-06-03 07:31:00,
2013-06-03 03:36:00,78.6,75.7,29.94,SW,225,1.0,4.0,91,0.09,,,0.15,meteohub,2013-06-03 07:36:00,
2013-06-03 03:37:00,78.6,75.7,29.94,SW,225,1.0,4.0,91,0.09,,,0.15,meteohub,2013-06-03 07:37:00,
2013-06-03 03:38:00,78.6,75.7,29.93,East,90,2.0,4.0,91,0.09,,,0.15,meteohub,2013-06-03 07:38:00,
2013-06-03 03:41:00,78.4,75.6,29.93,South,180,2.0,4.0,91,0.09,,,0.15,meteohub,2013-06-03 07:41:00,
2013-06-03 03:42:00,78.6,75.7,29.93,North,0,3.0,4.0,91,0.09,,,0.15,meteohub,2013-06-03 07:42:00,
2013-06-03 03:43:00,78.4,75.6,29.93,South,180,2.0,4.0,91,0.09,,,0.15,meteohub,2013-06-03 07:43:00,
2013-06-03 03:44:00,78.4,75.6,29.93,SW,225,2.0,4.0,91,0.09,,,0.15,meteohub,2013-06-03 07:44:00,
2013-06-03 03:46:00,78.6,75.7,29.93,SW,225,1.0,3.0,91,0.07,,,0.15,meteohub,2013-06-03 07:46:00,
2013-06-03 03:47:00,78.6,75.7,29.93,SW,225,1.0,3.0,91,0.07,,,0.15,meteohub,2013-06-03 07:47:00,
2013-06-03 03:48:00,78.4,75.6,29.94,SW,225,2.0,3.0,91,0.07,,,0.15,meteohub,2013-06-03 07:48:00,
2013-06-03 03:49:00,78.4,75.6,29.93,NW,315,2.0,3.0,91,0.07,,,0.15,meteohub,2013-06-03 07:49:00,
2013-06-03 03:53:00,78.4,75.9,29.93,SE,135,2.0,3.0,92,0.05,,,0.15,meteohub,2013-06-03 07:53:00,
2013-06-03 03:55:00,78.4,75.9,29.93,West,270,2.0,3.0,92,0.01,,,0.15,meteohub,2013-06-03 07:55:00,
2013-06-03 03:56:00,78.4,75.9,29.93,South,180,2.0,3.0,92,0.01,,,0.15,meteohub,2013-06-03 07:56:00,
2013-06-03 03:58:00,78.4,75.9,29.93,South,180,1.0,3.0,92,0.01,,,0.15,meteohub,2013-06-03 07:58:00,
2013-06-03 04:00:00,78.4,75.9,29.93,SW,225,3.0,3.0,92,0.00,,,0.15,meteohub,2013-06-03 08:00:00,
2013-06-03 04:01:00,78.4,75.9,29.93,SW,225,3.0,3.0,92,0.00,,,0.15,meteohub,2013-06-03 08:01:00,
2013-06-03 04:02:00,78.4,75.9,29.93,SW,225,3.0,3.0,92,0.00,,,0.15,meteohub,2013-06-03 08:02:00,
2013-06-03 04:03:00,78.4,75.9,29.93,SE,135,1.0,2.0,92,0.00,,,0.15,meteohub,2013-06-03 08:03:00,
2013-06-03 04:06:00,78.4,75.6,29.93,South,180,2.0,3.0,91,0.00,,,0.15,meteohub,2013-06-03 08:06:00,
2013-06-03 04:07:00,78.4,75.6,29.93,South,180,2.0,3.0,91,0.00,,,0.15,meteohub,2013-06-03 08:07:00,
2013-06-03 04:09:00,78.4,75.6,29.93,SW,225,4.0,4.0,91,0.00,,,0.15,meteohub,2013-06-03 08:09:00,
2013-06-03 04:10:00,78.4,75.6,29.93,WSW,248,2.0,3.0,91,0.00,,,0.15,meteohub,2013-06-03 08:10:00,
2013-06-03 04:12:00,78.4,75.6,29.93,SW,225,2.0,3.0,91,0.00,,,0.15,meteohub,2013-06-03 08:12:00,
2013-06-03 04:13:00,78.4,75.6,29.93,SW,225,2.0,3.0,91,0.00,,,0.15,meteohub,2013-06-03 08:13:00,
2013-06-03 04:14:00,78.4,75.6,29.93,SW,225,4.0,4.0,91,0.00,,,0.15,meteohub,2013-06-03 08:14:00,
2013-06-03 04:17:00,78.4,75.6,29.93,South,180,2.0,4.0,91,0.00,,,0.15,meteohub,2013-06-03 08:17:00,
2013-06-03 04:20:00,78.4,75.6,29.93,East,90,4.0,4.0,91,0.00,,,0.15,meteohub,2013-06-03 08:20:00,
2013-06-03 04:21:00,78.4,75.6,29.93,South,180,1.0,4.0,91,0.00,,,0.15,meteohub,2013-06-03 08:21:00,
2013-06-03 04:24:00,78.4,75.9,29.93,South,180,2.0,4.0,92,0.00,,,0.15,meteohub,2013-06-03 08:24:00,
2013-06-03 04:25:00,78.4,75.9,29.94,North,0,2.0,4.0,92,0.01,,,0.17,meteohub,2013-06-03 08:25:00,
2013-06-03 04:26:00,78.4,75.9,29.93,North,0,0.0,4.0,92,0.01,,,0.17,meteohub,2013-06-03 08:26:00,
2013-06-03 04:29:00,78.4,75.9,29.94,South,180,3.0,4.0,92,0.01,,,0.17,meteohub,2013-06-03 08:29:00,
2013-06-03 04:30:00,78.3,75.7,29.94,South,180,2.0,4.0,92,0.01,,,0.17,meteohub,2013-06-03 08:30:00,
2013-06-03 04:32:00,78.4,75.9,29.93,SW,225,2.0,4.0,92,0.01,,,0.17,meteohub,2013-06-03 08:32:00,
2013-06-03 04:33:00,78.4,75.9,29.93,SW,225,2.0,4.0,92,0.01,,,0.17,meteohub,2013-06-03 08:33:00,
2013-06-03 04:35:00,78.4,75.9,29.93,SW,225,3.0,4.0,92,0.01,,,0.17,meteohub,2013-06-03 08:35:00,
2013-06-03 04:37:00,78.4,75.9,29.93,SW,225,2.0,4.0,92,0.01,,,0.17,meteohub,2013-06-03 08:37:00,
2013-06-03 04:38:00,78.4,75.9,29.93,SW,225,2.0,4.0,92,0.01,,,0.17,meteohub,2013-06-03 08:38:00,
2013-06-03 04:39:00,78.4,76.3,29.93,North,0,4.0,4.0,93,0.01,,,0.17,meteohub,2013-06-03 08:39:00,
2013-06-03 04:40:00,78.4,76.3,29.93,North,0,4.0,4.0,93,0.01,,,0.17,meteohub,2013-06-03 08:40:00,
2013-06-03 04:42:00,78.6,76.5,29.93,SW,225,4.0,4.0,93,0.02,,,0.18,meteohub,2013-06-03 08:42:00,
2013-06-03 04:43:00,78.6,76.5,29.93,West,270,3.0,4.0,93,0.02,,,0.18,meteohub,2013-06-03 08:43:00,
2013-06-03 04:46:00,78.6,76.5,29.93,South,180,3.0,4.0,93,0.02,,,0.18,meteohub,2013-06-03 08:46:00,
2013-06-03 04:47:00,78.6,76.5,29.93,South,180,3.0,4.0,93,0.02,,,0.18,meteohub,2013-06-03 08:47:00,
2013-06-03 04:48:00,78.6,76.5,29.93,South,180,2.0,4.0,93,0.02,,,0.18,meteohub,2013-06-03 08:48:00,
2013-06-03 04:49:00,78.6,76.5,29.93,NW,315,2.0,4.0,93,0.02,,,0.18,meteohub,2013-06-03 08:49:00,
2013-06-03 04:53:00,78.6,76.1,29.93,SW,225,2.0,4.0,92,0.02,,,0.18,meteohub,2013-06-03 08:53:00,
2013-06-03 04:55:00,78.6,76.1,29.93,SW,225,2.0,4.0,92,0.02,,,0.18,meteohub,2013-06-03 08:55:00,
2013-06-03 04:57:00,78.6,76.1,29.93,West,270,2.0,4.0,92,0.02,,,0.18,meteohub,2013-06-03 08:57:00,
2013-06-03 04:59:00,78.6,76.1,29.94,SW,225,2.0,4.0,92,0.02,,,0.18,meteohub,2013-06-03 08:59:00,
2013-06-03 05:00:00,78.6,76.1,29.93,SW,225,4.0,4.0,92,0.02,,,0.18,meteohub,2013-06-03 09:00:00,
2013-06-03 05:04:00,78.8,75.9,29.94,SW,225,1.0,4.0,91,0.02,,,0.18,meteohub,2013-06-03 09:04:00,
2013-06-03 05:05:00,78.8,75.9,29.94,SW,225,3.0,4.0,91,0.02,,,0.18,meteohub,2013-06-03 09:05:00,
2013-06-03 05:06:00,78.6,76.1,29.94,SW,225,2.0,6.0,92,0.02,,,0.18,meteohub,2013-06-03 09:06:00,
2013-06-03 05:07:00,78.6,76.1,29.93,SW,225,1.0,6.0,92,0.02,,,0.18,meteohub,2013-06-03 09:07:00,
2013-06-03 05:10:00,78.6,76.1,29.94,SE,135,2.0,6.0,92,0.02,,,0.20,meteohub,2013-06-03 09:10:00,
2013-06-03 05:12:00,78.6,76.1,29.94,SE,135,3.0,6.0,92,0.05,,,0.20,meteohub,2013-06-03 09:12:00,
2013-06-03 05:13:00,78.6,76.1,29.94,NNW,338,2.0,6.0,92,0.05,,,0.20,meteohub,2013-06-03 09:13:00,
2013-06-03 05:14:00,78.6,76.1,29.94,SE,135,2.0,6.0,92,0.05,,,0.20,meteohub,2013-06-03 09:14:00,
2013-06-03 05:15:00,78.6,76.1,29.94,SW,225,3.0,6.0,92,0.07,,,0.22,meteohub,2013-06-03 09:15:00,
2013-06-03 05:16:00,78.6,76.1,29.94,SW,225,4.0,6.0,92,0.07,,,0.22,meteohub,2013-06-03 09:16:00,
2013-06-03 05:17:00,78.6,76.1,29.94,SW,225,3.0,6.0,92,0.07,,,0.22,meteohub,2013-06-03 09:17:00,
2013-06-03 05:20:00,78.6,76.1,29.94,East,90,2.0,5.0,92,0.18,,,0.33,meteohub,2013-06-03 09:20:00,
2013-06-03 05:21:00,78.6,76.1,29.94,South,180,2.0,5.0,92,0.18,,,0.33,meteohub,2013-06-03 09:21:00,
2013-06-03 05:22:00,78.6,76.1,29.94,SW,225,2.0,5.0,92,0.18,,,0.33,meteohub,2013-06-03 09:22:00,
2013-06-03 05:24:00,78.6,76.1,29.94,SE,135,3.0,5.0,92,0.18,,,0.33,meteohub,2013-06-03 09:24:00,
2013-06-03 05:26:00,78.6,76.1,29.94,West,270,0.0,5.0,92,0.25,,,0.41,meteohub,2013-06-03 09:26:00,
2013-06-03 05:27:00,78.6,75.7,29.94,NW,315,2.0,5.0,91,0.25,,,0.41,meteohub,2013-06-03 09:27:00,
2013-06-03 05:28:00,78.6,75.7,29.94,SW,225,2.0,5.0,91,0.25,,,0.41,meteohub,2013-06-03 09:28:00,
2013-06-03 05:32:00,78.6,75.7,29.94,South,180,2.0,5.0,91,0.25,,,0.41,meteohub,2013-06-03 09:32:00,
2013-06-03 05:34:00,78.6,75.7,29.94,SW,225,4.0,5.0,91,0.25,,,0.41,meteohub,2013-06-03 09:34:00,
2013-06-03 05:35:00,78.6,75.7,29.94,SW,225,2.0,4.0,91,0.25,,,0.43,meteohub,2013-06-03 09:35:00,
2013-06-03 05:36:00,78.6,75.7,29.94,SW,225,2.0,4.0,91,0.25,,,0.43,meteohub,2013-06-03 09:36:00,
2013-06-03 05:38:00,78.4,75.6,29.94,SW,225,2.0,4.0,91,0.25,,,0.43,meteohub,2013-06-03 09:38:00,
2013-06-03 05:41:00,78.6,75.7,29.94,SE,135,3.0,4.0,91,0.25,,,0.43,meteohub,2013-06-03 09:41:00,
2013-06-03 05:43:00,78.6,75.7,29.95,SW,225,0.0,4.0,91,0.25,,,0.43,meteohub,2013-06-03 09:43:00,
2013-06-03 05:44:00,78.6,76.1,29.95,SW,225,3.0,4.0,92,0.25,,,0.43,meteohub,2013-06-03 09:44:00,
2013-06-03 05:45:00,78.6,76.1,29.95,West,270,5.0,5.0,92,0.25,,,0.43,meteohub,2013-06-03 09:45:00,
2013-06-03 05:46:00,78.6,76.1,29.94,SW,225,4.0,4.0,92,0.25,,,0.43,meteohub,2013-06-03 09:46:00,
2013-06-03 05:49:00,78.6,76.1,29.95,North,0,4.0,4.0,92,0.25,,,0.43,meteohub,2013-06-03 09:49:00,
2013-06-03 05:50:00,78.6,76.1,29.95,SW,225,2.0,4.0,92,0.25,,,0.43,meteohub,2013-06-03 09:50:00,
2013-06-03 05:51:00,78.6,76.1,29.95,SW,225,3.0,9.0,92,0.25,,,0.43,meteohub,2013-06-03 09:51:00,
2013-06-03 05:52:00,78.8,75.6,29.95,SW,225,6.0,9.0,90,0.25,,,0.43,meteohub,2013-06-03 09:52:00,
2013-06-03 05:55:00,78.8,75.6,29.95,WSW,248,4.0,9.0,90,0.25,,,0.48,meteohub,2013-06-03 09:55:00,
2013-06-03 05:57:00,78.8,75.6,29.95,NW,315,3.0,9.0,90,0.31,,,0.48,meteohub,2013-06-03 09:57:00,
2013-06-03 05:58:00,78.8,75.6,29.95,South,180,3.0,9.0,90,0.31,,,0.48,meteohub,2013-06-03 09:58:00,
2013-06-03 06:00:00,78.8,75.6,29.95,SW,225,4.0,9.0,90,0.31,,,0.48,meteohub,2013-06-03 10:00:00,
2013-06-03 06:02:00,78.8,75.6,29.95,East,90,2.0,9.0,90,0.31,,,0.48,meteohub,2013-06-03 10:02:00,
2013-06-03 06:03:00,78.8,75.2,29.95,South,180,4.0,9.0,89,0.31,,,0.48,meteohub,2013-06-03 10:03:00,
2013-06-03 06:04:00,78.8,75.2,29.95,South,180,4.0,9.0,89,0.31,,,0.48,meteohub,2013-06-03 10:04:00,
2013-06-03 06:06:00,78.8,75.2,29.95,SW,225,3.0,6.0,89,0.31,,,0.48,meteohub,2013-06-03 10:06:00,
2013-06-03 06:07:00,78.6,75.4,29.95,SW,225,2.0,6.0,90,0.31,,,0.48,meteohub,2013-06-03 10:07:00,
2013-06-03 06:11:00,78.6,75.4,29.95,SW,225,3.0,5.0,90,0.28,,,0.48,meteohub,2013-06-03 10:11:00,
2013-06-03 06:12:00,78.6,75.4,29.95,SW,225,2.0,5.0,90,0.28,,,0.48,meteohub,2013-06-03 10:12:00,
2013-06-03 06:13:00,78.6,75.4,29.95,NW,315,3.0,5.0,90,0.28,,,0.48,meteohub,2013-06-03 10:13:00,
2013-06-03 06:15:00,78.6,75.4,29.95,South,180,2.0,5.0,90,0.28,,,0.48,meteohub,2013-06-03 10:15:00,
2013-06-03 06:16:00,78.6,75.4,29.95,South,180,2.0,6.0,90,0.19,,,0.48,meteohub,2013-06-03 10:16:00,
2013-06-03 06:17:00,78.6,75.4,29.95,South,180,2.0,6.0,90,0.19,,,0.48,meteohub,2013-06-03 10:17:00,
2013-06-03 06:20:00,78.4,75.2,29.94,SW,225,2.0,6.0,90,0.09,,,0.48,meteohub,2013-06-03 10:20:00,
2013-06-03 06:22:00,78.4,75.2,29.94,South,180,2.0,6.0,90,0.09,,,0.48,meteohub,2013-06-03 10:22:00,
2013-06-03 06:25:00,78.4,75.2,29.95,SW,225,5.0,6.0,90,0.09,,,0.48,meteohub,2013-06-03 10:25:00,
2013-06-03 06:27:00,78.4,75.2,29.95,NW,315,4.0,5.0,90,0.07,,,0.48,meteohub,2013-06-03 10:27:00,
2013-06-03 06:30:00,78.4,75.2,29.95,SW,225,2.0,5.0,90,0.06,,,0.48,meteohub,2013-06-03 10:30:00,
2013-06-03 06:32:00,78.4,75.2,29.94,North,0,4.0,5.0,90,0.06,,,0.48,meteohub,2013-06-03 10:32:00,
2013-06-03 06:33:00,78.4,75.2,29.95,SW,225,3.0,5.0,90,0.06,,,0.48,meteohub,2013-06-03 10:33:00,
2013-06-03 06:34:00,78.3,75.0,29.94,SW,225,4.0,5.0,90,0.06,,,0.48,meteohub,2013-06-03 10:34:00,
2013-06-03 06:36:00,78.4,75.2,29.94,SW,225,3.0,5.0,90,0.13,,,0.56,meteohub,2013-06-03 10:36:00,
2013-06-03 06:40:00,78.3,75.0,29.95,South,180,4.0,5.0,90,0.13,,,0.56,meteohub,2013-06-03 10:40:00,
2013-06-03 06:41:00,78.4,75.2,29.95,SW,225,4.0,5.0,90,0.13,,,0.56,meteohub,2013-06-03 10:41:00,
2013-06-03 06:42:00,78.4,75.2,29.95,SW,225,3.0,5.0,90,0.13,,,0.56,meteohub,2013-06-03 10:42:00,
2013-06-03 06:43:00,78.3,75.0,29.95,South,180,4.0,5.0,90,0.13,,,0.56,meteohub,2013-06-03 10:43:00,
2013-06-03 06:45:00,78.4,75.2,29.95,South,180,4.0,5.0,90,0.13,,,0.56,meteohub,2013-06-03 10:45:00,
2013-06-03 06:46:00,78.4,75.2,29.95,SW,225,4.0,5.0,90,0.13,,,0.56,meteohub,2013-06-03 10:46:00,
2013-06-03 06:47:00,78.4,75.2,29.95,SW,225,3.0,5.0,90,0.13,,,0.56,meteohub,2013-06-03 10:47:00,
2013-06-03 06:50:00,78.4,75.2,29.95,SW,225,4.0,5.0,90,0.11,,,0.59,meteohub,2013-06-03 10:50:00,
2013-06-03 06:52:00,78.4,75.2,29.95,South,180,4.0,5.0,90,0.11,,,0.59,meteohub,2013-06-03 10:52:00,
2013-06-03 06:54:00,78.4,75.2,29.95,South,180,3.0,5.0,90,0.11,,,0.59,meteohub,2013-06-03 10:54:00,
2013-06-03 06:55:00,78.4,75.2,29.95,SW,225,3.0,5.0,90,0.22,,,0.71,meteohub,2013-06-03 10:55:00,
2013-06-03 06:56:00,78.4,75.2,29.95,SW,225,2.0,5.0,90,0.22,,,0.71,meteohub,2013-06-03 10:56:00,
2013-06-03 06:57:00,78.6,75.4,29.95,SE,135,4.0,5.0,90,0.22,,,0.71,meteohub,2013-06-03 10:57:00,
2013-06-03 07:00:00,78.6,75.4,29.95,SW,225,2.0,5.0,90,0.22,,,0.71,meteohub,2013-06-03 11:00:00,
2013-06-03 07:03:00,78.6,75.7,29.95,SW,225,4.0,5.0,91,0.22,,,0.71,meteohub,2013-06-03 11:03:00,
2013-06-03 07:04:00,78.6,75.7,29.95,SW,225,3.0,5.0,91,0.22,,,0.71,meteohub,2013-06-03 11:04:00,
2013-06-03 07:05:00,78.6,75.7,29.95,SW,225,2.0,5.0,91,0.22,,,0.71,meteohub,2013-06-03 11:05:00,
2013-06-03 07:06:00,78.6,75.7,29.95,SW,225,3.0,5.0,91,0.22,,,0.71,meteohub,2013-06-03 11:06:00,
2013-06-03 07:08:00,78.6,75.7,29.95,South,180,3.0,5.0,91,0.22,,,0.71,meteohub,2013-06-03 11:08:00,
2013-06-03 07:09:00,78.6,75.7,29.95,South,180,2.0,5.0,91,0.22,,,0.71,meteohub,2013-06-03 11:09:00,
2013-06-03 07:11:00,78.8,75.6,29.95,NW,315,2.0,4.0,90,0.22,,,0.71,meteohub,2013-06-03 11:11:00,
2013-06-03 07:12:00,78.8,75.6,29.95,SW,225,4.0,4.0,90,0.22,,,0.71,meteohub,2013-06-03 11:12:00,
2013-06-03 07:13:00,78.6,75.4,29.95,East,90,3.0,4.0,90,0.22,,,0.71,meteohub,2013-06-03 11:13:00,
2013-06-03 07:14:00,78.6,75.4,29.95,East,90,3.0,4.0,90,0.22,,,0.71,meteohub,2013-06-03 11:14:00,
2013-06-03 07:16:00,78.8,75.2,29.95,South,180,2.0,4.0,89,0.22,,,0.71,meteohub,2013-06-03 11:16:00,
2013-06-03 07:19:00,78.8,75.0,29.95,SW,225,4.0,4.0,88,0.22,,,0.71,meteohub,2013-06-03 11:19:00,
2013-06-03 07:21:00,78.8,75.0,29.95,East,90,5.0,5.0,88,0.22,,,0.71,meteohub,2013-06-03 11:21:00,
2013-06-03 07:22:00,78.8,75.0,29.95,South,180,3.0,5.0,88,0.22,,,0.71,meteohub,2013-06-03 11:22:00,
2013-06-03 07:23:00,79.0,75.2,29.95,SW,225,2.0,5.0,88,0.22,,,0.71,meteohub,2013-06-03 11:23:00,
2013-06-03 07:25:00,79.0,75.2,29.95,SW,225,2.0,5.0,88,0.22,,,0.71,meteohub,2013-06-03 11:25:00,
2013-06-03 07:26:00,79.0,75.2,29.95,South,180,4.0,5.0,88,0.22,,,0.71,meteohub,2013-06-03 11:26:00,
2013-06-03 07:27:00,79.0,75.2,29.95,South,180,4.0,5.0,88,0.22,,,0.71,meteohub,2013-06-03 11:27:00,
2013-06-03 07:28:00,79.0,75.2,29.95,SW,225,4.0,5.0,88,0.22,,,0.71,meteohub,2013-06-03 11:28:00,
2013-06-03 07:30:00,79.0,75.2,29.95,SW,225,5.0,5.0,88,0.22,,,0.71,meteohub,2013-06-03 11:30:00,
2013-06-03 07:31:00,79.0,75.2,29.95,SW,225,4.0,5.0,88,0.22,,,0.71,meteohub,2013-06-03 11:31:00,
2013-06-03 07:32:00,79.0,75.2,29.95,SW,225,4.0,5.0,88,0.22,,,0.71,meteohub,2013-06-03 11:32:00,
2013-06-03 07:33:00,79.2,75.0,29.95,South,180,2.0,5.0,87,0.22,,,0.71,meteohub,2013-06-03 11:33:00,
2013-06-03 07:35:00,79.2,75.0,29.95,SW,225,4.0,5.0,87,0.15,,,0.71,meteohub,2013-06-03 11:35:00,
2013-06-03 07:37:00,79.2,75.0,29.95,SW,225,1.0,5.0,87,0.15,,,0.71,meteohub,2013-06-03 11:37:00,
2013-06-03 07:38:00,79.2,75.0,29.95,SE,135,2.0,5.0,87,0.15,,,0.71,meteohub,2013-06-03 11:38:00,
2013-06-03 07:39:00,79.2,75.0,29.95,SE,135,2.0,5.0,87,0.15,,,0.71,meteohub,2013-06-03 11:39:00,
2013-06-03 07:42:00,79.2,75.0,29.95,NW,315,2.0,5.0,87,0.15,,,0.71,meteohub,2013-06-03 11:42:00,
2013-06-03 07:43:00,79.2,75.0,29.95,SE,135,2.0,5.0,87,0.15,,,0.71,meteohub,2013-06-03 11:43:00,
2013-06-03 07:44:00,79.2,75.0,29.95,West,270,3.0,5.0,87,0.15,,,0.71,meteohub,2013-06-03 11:44:00,
2013-06-03 07:45:00,79.2,75.0,29.95,East,90,2.0,5.0,87,0.15,,,0.71,meteohub,2013-06-03 11:45:00,
2013-06-03 07:46:00,79.2,75.0,29.95,South,180,2.0,5.0,87,0.15,,,0.71,meteohub,2013-06-03 11:46:00,
2013-06-03 07:49:00,79.0,74.8,29.95,NW,315,2.0,5.0,87,0.15,,,0.71,meteohub,2013-06-03 11:49:00,
2013-06-03 07:51:00,79.0,74.8,29.96,South,180,2.0,5.0,87,0.12,,,0.71,meteohub,2013-06-03 11:51:00,
2013-06-03 07:52:00,79.0,74.8,29.96,South,180,2.0,5.0,87,0.12,,,0.71,meteohub,2013-06-03 11:52:00,
2013-06-03 07:55:00,79.2,75.0,29.96,SW,225,4.0,5.0,87,0.13,,,0.84,meteohub,2013-06-03 11:55:00,
2013-06-03 07:57:00,79.2,74.7,29.96,SW,225,2.0,5.0,86,0.13,,,0.84,meteohub,2013-06-03 11:57:00,
2013-06-03 08:00:00,79.2,74.7,29.96,SE,135,4.0,5.0,86,0.14,,,0.85,meteohub,2013-06-03 12:00:00,
2013-06-03 08:02:00,79.2,74.7,29.97,SW,225,4.0,5.0,86,0.14,,,0.85,meteohub,2013-06-03 12:02:00,
2013-06-03 08:07:00,79.3,74.8,29.97,West,270,5.0,5.0,86,0.14,,,0.85,meteohub,2013-06-03 12:07:00,
2013-06-03 08:08:00,79.5,75.0,29.97,North,0,3.0,4.0,86,0.14,,,0.85,meteohub,2013-06-03 12:08:00,
2013-06-03 08:09:00,79.5,75.0,29.97,SW,225,4.0,4.0,86,0.14,,,0.85,meteohub,2013-06-03 12:09:00,
2013-06-03 08:12:00,79.5,75.0,29.97,SW,225,4.0,7.0,86,0.15,,,0.86,meteohub,2013-06-03 12:12:00,
2013-06-03 08:13:00,79.5,75.0,29.97,SW,225,4.0,7.0,86,0.15,,,0.86,meteohub,2013-06-03 12:13:00,
2013-06-03 08:15:00,79.7,74.8,29.97,NE,45,5.0,7.0,85,0.15,,,0.86,meteohub,2013-06-03 12:15:00,
2013-06-03 08:16:00,79.7,74.8,29.97,East,90,2.0,7.0,85,0.15,,,0.86,meteohub,2013-06-03 12:16:00,
2013-06-03 08:21:00,79.9,75.0,29.97,East,90,6.0,7.0,85,0.15,,,0.86,meteohub,2013-06-03 12:21:00,
2013-06-03 08:22:00,79.9,75.0,29.98,West,270,5.0,7.0,85,0.15,,,0.86,meteohub,2013-06-03 12:22:00,
2013-06-03 08:26:00,80.1,75.2,29.97,South,180,2.0,8.0,85,0.15,,,0.86,meteohub,2013-06-03 12:26:00,
2013-06-03 08:27:00,80.1,75.2,29.98,SW,225,3.0,8.0,85,0.15,,,0.86,meteohub,2013-06-03 12:27:00,
2013-06-03 08:28:00,80.1,75.2,29.98,South,180,5.0,8.0,85,0.15,,,0.86,meteohub,2013-06-03 12:28:00,
2013-06-03 08:30:00,80.1,75.2,29.98,SW,225,4.0,8.0,85,0.15,,,0.86,meteohub,2013-06-03 12:30:00,
2013-06-03 08:32:00,80.1,75.2,29.98,SE,135,4.0,8.0,85,0.15,,,0.86,meteohub,2013-06-03 12:32:00,
2013-06-03 08:33:00,80.1,75.2,29.98,South,180,3.0,8.0,85,0.15,,,0.86,meteohub,2013-06-03 12:33:00,
2013-06-03 08:36:00,80.1,75.2,29.98,West,270,3.0,8.0,85,0.19,,,0.90,meteohub,2013-06-03 12:36:00,
2013-06-03 08:38:00,80.1,75.2,29.98,SW,225,4.0,8.0,85,0.19,,,0.90,meteohub,2013-06-03 12:38:00,
2013-06-03 08:39:00,80.2,75.4,29.98,South,180,4.0,8.0,85,0.19,,,0.90,meteohub,2013-06-03 12:39:00,
2013-06-03 08:40:00,80.2,75.4,29.98,SW,225,6.0,6.0,85,0.20,,,0.91,meteohub,2013-06-03 12:40:00,
2013-06-03 08:41:00,80.4,75.6,29.98,West,270,4.0,5.0,85,0.20,,,0.91,meteohub,2013-06-03 12:41:00,
2013-06-03 08:44:00,80.4,75.6,29.98,NW,315,4.0,5.0,85,0.20,,,0.91,meteohub,2013-06-03 12:44:00,
2013-06-03 08:45:00,80.4,75.6,29.98,SW,225,5.0,6.0,85,0.20,,,0.91,meteohub,2013-06-03 12:45:00,
2013-06-03 08:48:00,80.6,75.0,29.98,SW,225,8.0,8.0,83,0.20,,,0.91,meteohub,2013-06-03 12:48:00,
2013-06-03 08:51:00,80.6,75.0,29.98,NW,315,4.0,9.0,83,0.20,,,0.91,meteohub,2013-06-03 12:51:00,
2013-06-03 08:53:00,81.0,75.4,29.98,SW,225,7.0,9.0,83,0.20,,,0.91,meteohub,2013-06-03 12:53:00,
2013-06-03 08:54:00,81.0,75.4,29.98,SW,225,7.0,9.0,83,0.20,,,0.91,meteohub,2013-06-03 12:54:00,
2013-06-03 08:55:00,81.0,75.4,29.98,South,180,8.0,9.0,83,0.06,,,0.91,meteohub,2013-06-03 12:55:00,
2013-06-03 08:57:00,81.0,75.0,29.98,South,180,7.0,9.0,82,0.06,,,0.91,meteohub,2013-06-03 12:57:00,
2013-06-03 09:00:00,81.1,75.2,29.98,East,90,4.0,9.0,82,0.06,,,0.91,meteohub,2013-06-03 13:00:00,
2013-06-03 09:02:00,81.1,75.2,29.98,SW,225,7.0,9.0,82,0.06,,,0.91,meteohub,2013-06-03 13:02:00,
2013-06-03 09:05:00,81.1,75.2,29.98,South,180,4.0,8.0,82,0.05,,,0.91,meteohub,2013-06-03 13:05:00,
2013-06-03 09:06:00,81.1,75.2,29.99,South,180,6.0,8.0,82,0.05,,,0.91,meteohub,2013-06-03 13:06:00,
2013-06-03 09:10:00,81.1,75.2,29.98,SW,225,8.0,8.0,82,0.05,,,0.91,meteohub,2013-06-03 13:10:00,
2013-06-03 09:11:00,81.1,75.2,29.98,SW,225,8.0,8.0,82,0.05,,,0.91,meteohub,2013-06-03 13:11:00,
2013-06-03 09:12:00,81.1,75.2,29.99,South,180,9.0,9.0,82,0.05,,,0.91,meteohub,2013-06-03 13:12:00,
2013-06-03 09:13:00,81.0,75.0,29.99,SW,225,6.0,8.0,82,0.05,,,0.91,meteohub,2013-06-03 13:13:00,
2013-06-03 09:16:00,80.8,74.8,29.98,SW,225,5.0,9.0,82,0.05,,,0.91,meteohub,2013-06-03 13:16:00,
2013-06-03 09:17:00,80.8,75.2,29.99,SW,225,5.0,9.0,83,0.05,,,0.91,meteohub,2013-06-03 13:17:00,
2013-06-03 09:19:00,80.8,75.2,29.99,SW,225,3.0,9.0,83,0.05,,,0.91,meteohub,2013-06-03 13:19:00,
2013-06-03 09:24:00,80.8,75.9,29.98,SE,135,2.0,9.0,85,0.05,,,0.91,meteohub,2013-06-03 13:24:00,
2013-06-03 09:26:00,80.8,75.9,29.98,East,90,6.0,9.0,85,0.05,,,0.91,meteohub,2013-06-03 13:26:00,
2013-06-03 09:27:00,80.6,75.7,29.98,NE,45,4.0,9.0,85,0.05,,,0.91,meteohub,2013-06-03 13:27:00,
2013-06-03 09:30:00,80.4,75.6,29.98,South,180,2.0,7.0,85,0.05,,,0.91,meteohub,2013-06-03 13:30:00,
2013-06-03 09:32:00,80.4,75.6,29.98,East,90,2.0,7.0,85,0.05,,,0.91,meteohub,2013-06-03 13:32:00,
2013-06-03 09:33:00,80.4,75.9,29.98,South,180,2.0,7.0,86,0.05,,,0.91,meteohub,2013-06-03 13:33:00,
2013-06-03 09:35:00,80.4,75.9,29.98,East,90,4.0,7.0,86,0.01,,,0.91,meteohub,2013-06-03 13:35:00,
2013-06-03 09:37:00,80.4,75.9,29.98,SE,135,3.0,7.0,86,0.01,,,0.91,meteohub,2013-06-03 13:37:00,
2013-06-03 09:38:00,80.2,75.7,29.98,SW,225,2.0,7.0,86,0.01,,,0.91,meteohub,2013-06-03 13:38:00,
2013-06-03 09:39:00,80.2,75.7,29.98,SW,225,2.0,7.0,86,0.01,,,0.91,meteohub,2013-06-03 13:39:00,
2013-06-03 09:41:00,80.2,75.4,29.98,SE,135,2.0,7.0,85,0.00,,,0.91,meteohub,2013-06-03 13:41:00,
2013-06-03 09:42:00,80.4,75.6,29.98,East,90,3.0,7.0,85,0.00,,,0.91,meteohub,2013-06-03 13:42:00,
2013-06-03 09:45:00,80.4,75.6,29.98,SE,135,1.0,6.0,85,0.00,,,0.91,meteohub,2013-06-03 13:45:00,
2013-06-03 09:46:00,80.4,75.6,29.98,North,0,0.0,6.0,85,0.00,,,0.91,meteohub,2013-06-03 13:46:00,
2013-06-03 09:47:00,80.4,75.6,29.98,NE,45,1.0,6.0,85,0.00,,,0.91,meteohub,2013-06-03 13:47:00,
2013-06-03 09:48:00,80.6,75.4,29.98,East,90,2.0,6.0,84,0.00,,,0.91,meteohub,2013-06-03 13:48:00,
2013-06-03 09:51:00,80.8,75.9,29.98,East,90,3.0,6.0,85,0.00,,,0.91,meteohub,2013-06-03 13:51:00,
2013-06-03 09:53:00,81.3,76.5,29.98,SW,225,6.0,6.0,85,0.00,,,0.91,meteohub,2013-06-03 13:53:00,
2013-06-03 09:54:00,81.5,76.5,29.98,NE,45,2.0,6.0,85,0.00,,,0.91,meteohub,2013-06-03 13:54:00,
2013-06-03 09:55:00,81.7,76.6,29.98,SW,225,2.0,6.0,85,0.00,,,0.91,meteohub,2013-06-03 13:55:00,
2013-06-03 09:56:00,81.9,76.8,29.98,East,90,2.0,6.0,85,0.00,,,0.91,meteohub,2013-06-03 13:56:00,
2013-06-03 09:59:00,82.2,76.8,29.98,SE,135,2.0,6.0,84,0.00,,,0.91,meteohub,2013-06-03 13:59:00,
2013-06-03 10:00:00,82.4,77.4,29.98,SW,225,4.0,6.0,85,0.00,,,0.91,meteohub,2013-06-03 14:00:00,
2013-06-03 10:03:00,82.4,77.0,29.98,SE,135,5.0,6.0,84,0.00,,,0.91,meteohub,2013-06-03 14:03:00,
2013-06-03 10:05:00,82.4,77.0,29.98,SW,225,4.0,6.0,84,0.00,,,0.91,meteohub,2013-06-03 14:05:00,
2013-06-03 10:07:00,82.4,77.0,29.98,SE,135,2.0,6.0,84,0.00,,,0.91,meteohub,2013-06-03 14:07:00,
2013-06-03 10:08:00,82.2,76.5,29.98,NE,45,5.0,6.0,83,0.00,,,0.91,meteohub,2013-06-03 14:08:00,
2013-06-03 10:10:00,82.4,77.0,29.98,SE,135,2.0,5.0,84,0.01,,,0.92,meteohub,2013-06-03 14:10:00,
2013-06-03 10:12:00,82.6,77.5,29.98,East,90,4.0,5.0,85,0.01,,,0.92,meteohub,2013-06-03 14:12:00,
2013-06-03 10:16:00,83.1,77.7,29.98,South,180,4.0,5.0,84,0.02,,,0.93,meteohub,2013-06-03 14:16:00,
2013-06-03 10:17:00,83.1,77.7,29.98,South,180,4.0,5.0,84,0.02,,,0.93,meteohub,2013-06-03 14:17:00,
2013-06-03 10:19:00,83.3,77.2,29.98,East,90,4.0,5.0,82,0.02,,,0.93,meteohub,2013-06-03 14:19:00,
2013-06-03 10:20:00,83.3,77.2,29.98,East,90,4.0,5.0,82,0.02,,,0.93,meteohub,2013-06-03 14:20:00,
2013-06-03 10:21:00,83.3,76.8,29.98,South,180,5.0,5.0,81,0.02,,,0.93,meteohub,2013-06-03 14:21:00,
2013-06-03 10:22:00,83.1,76.3,29.98,SE,135,6.0,6.0,80,0.02,,,0.93,meteohub,2013-06-03 14:22:00,
2013-06-03 10:26:00,82.8,76.3,29.98,West,270,7.0,7.0,81,0.02,,,0.93,meteohub,2013-06-03 14:26:00,
2013-06-03 10:27:00,82.8,76.3,29.98,West,270,6.0,7.0,81,0.02,,,0.93,meteohub,2013-06-03 14:27:00,
2013-06-03 10:29:00,82.4,75.9,29.98,South,180,6.0,7.0,81,0.02,,,0.93,meteohub,2013-06-03 14:29:00,
2013-06-03 10:30:00,82.4,75.6,29.98,West,270,5.0,7.0,80,0.02,,,0.93,meteohub,2013-06-03 14:30:00,
2013-06-03 10:32:00,82.4,75.9,29.98,SW,225,8.0,8.0,81,0.02,,,0.93,meteohub,2013-06-03 14:32:00,
2013-06-03 10:35:00,82.4,76.3,29.98,SE,135,4.0,8.0,82,0.02,,,0.93,meteohub,2013-06-03 14:35:00,
2013-06-03 10:36:00,82.6,76.5,29.98,South,180,4.0,8.0,82,0.02,,,0.93,meteohub,2013-06-03 14:36:00,
2013-06-03 10:37:00,82.8,76.6,29.98,SW,225,4.0,8.0,82,0.02,,,0.93,meteohub,2013-06-03 14:37:00,
2013-06-03 10:40:00,82.9,76.5,29.98,North,0,7.0,8.0,81,0.27,,,1.18,meteohub,2013-06-03 14:40:00,
2013-06-03 10:41:00,82.9,76.5,29.98,NW,315,7.0,8.0,81,0.27,,,1.18,meteohub,2013-06-03 14:41:00,
2013-06-03 10:42:00,83.1,77.0,29.98,East,90,6.0,8.0,82,0.27,,,1.18,meteohub,2013-06-03 14:42:00,
2013-06-03 10:46:00,83.5,76.6,29.97,South,180,7.0,8.0,80,0.63,,,1.42,meteohub,2013-06-03 14:46:00,
2013-06-03 10:47:00,83.7,76.8,29.97,West,270,8.0,8.0,80,0.63,,,1.42,meteohub,2013-06-03 14:47:00,
2013-06-03 10:48:00,83.7,76.8,29.97,West,270,8.0,8.0,80,0.63,,,1.42,meteohub,2013-06-03 14:48:00,
2013-06-03 10:49:00,83.7,76.5,29.97,SW,225,8.0,8.0,79,0.63,,,1.42,meteohub,2013-06-03 14:49:00,
2013-06-03 10:51:00,83.5,76.3,29.97,North,0,10.0,10.0,79,0.79,,,1.70,meteohub,2013-06-03 14:51:00,
2013-06-03 10:53:00,83.5,76.6,29.97,South,180,9.0,9.0,80,0.79,,,1.70,meteohub,2013-06-03 14:53:00,
2013-06-03 10:54:00,83.5,76.6,29.97,South,180,8.0,8.0,80,0.79,,,1.70,meteohub,2013-06-03 14:54:00,
2013-06-03 10:55:00,83.5,76.6,29.97,SW,225,4.0,10.0,80,0.91,,,1.82,meteohub,2013-06-03 14:55:00,
2013-06-03 10:57:00,83.7,76.8,29.97,East,90,5.0,10.0,80,0.91,,,1.82,meteohub,2013-06-03 14:57:00,
2013-06-03 10:59:00,83.8,77.0,29.97,NE,45,4.0,10.0,80,0.91,,,1.82,meteohub,2013-06-03 14:59:00,
2013-06-03 11:00:00,83.8,76.6,29.97,SW,225,6.0,10.0,79,0.91,,,1.82,meteohub,2013-06-03 15:00:00,
2013-06-03 11:01:00,83.8,76.6,29.98,SW,225,6.0,10.0,79,0.91,,,1.82,meteohub,2013-06-03 15:01:00,
2013-06-03 11:03:00,83.7,76.5,29.97,South,180,5.0,10.0,79,0.91,,,1.82,meteohub,2013-06-03 15:03:00,
2013-06-03 11:04:00,83.7,76.5,29.98,NE,45,3.0,10.0,79,0.91,,,1.82,meteohub,2013-06-03 15:04:00,
2013-06-03 11:06:00,83.7,76.5,29.98,SW,225,7.0,10.0,79,0.91,,,1.82,meteohub,2013-06-03 15:06:00,
2013-06-03 11:07:00,83.7,76.5,29.98,SW,225,7.0,10.0,79,0.91,,,1.82,meteohub,2013-06-03 15:07:00,
2013-06-03 11:08:00,83.5,75.9,29.98,East,90,5.0,10.0,78,0.91,,,1.82,meteohub,2013-06-03 15:08:00,
2013-06-03 11:10:00,83.5,75.9,29.98,West,270,4.0,7.0,78,0.91,,,1.83,meteohub,2013-06-03 15:10:00,
2013-06-03 11:12:00,83.3,75.4,29.98,SW,225,7.0,7.0,77,0.91,,,1.83,meteohub,2013-06-03 15:12:00,
2013-06-03 11:13:00,83.3,75.4,29.97,SW,225,5.0,7.0,77,0.91,,,1.83,meteohub,2013-06-03 15:13:00,
2013-06-03 11:14:00,83.3,75.7,29.98,West,270,2.0,7.0,78,0.91,,,1.83,meteohub,2013-06-03 15:14:00,
2013-06-03 11:15:00,83.3,76.1,29.98,NW,315,8.0,8.0,79,0.90,,,1.83,meteohub,2013-06-03 15:15:00,
2013-06-03 11:17:00,83.3,75.4,29.98,SW,225,8.0,8.0,77,0.90,,,1.83,meteohub,2013-06-03 15:17:00,
2013-06-03 11:19:00,83.1,75.6,29.98,South,180,6.0,7.0,78,0.90,,,1.83,meteohub,2013-06-03 15:19:00,
2013-06-03 11:20:00,82.9,75.4,29.98,SW,225,4.0,8.0,78,0.91,,,1.84,meteohub,2013-06-03 15:20:00,
2013-06-03 11:22:00,82.9,75.7,29.98,SW,225,6.0,8.0,79,0.91,,,1.84,meteohub,2013-06-03 15:22:00,
2013-06-03 11:23:00,82.9,75.7,29.97,West,270,5.0,8.0,79,0.91,,,1.84,meteohub,2013-06-03 15:23:00,
2013-06-03 11:26:00,82.8,75.6,29.98,North,0,6.0,9.0,79,1.02,,,1.95,meteohub,2013-06-03 15:26:00,
2013-06-03 11:28:00,82.9,76.1,29.98,NW,315,2.0,9.0,80,1.02,,,1.95,meteohub,2013-06-03 15:28:00,
2013-06-03 11:29:00,83.1,76.3,29.98,SW,225,4.0,9.0,80,1.02,,,1.95,meteohub,2013-06-03 15:29:00,
2013-06-03 11:31:00,83.1,76.3,29.98,SE,135,5.0,9.0,80,1.02,,,1.95,meteohub,2013-06-03 15:31:00,
2013-06-03 11:32:00,83.3,76.5,29.98,East,90,2.0,9.0,80,1.02,,,1.95,meteohub,2013-06-03 15:32:00,
2013-06-03 11:33:00,83.3,76.5,29.98,South,180,3.0,9.0,80,1.02,,,1.95,meteohub,2013-06-03 15:33:00,
2013-06-03 11:37:00,83.5,76.3,29.98,East,90,2.0,9.0,79,1.06,,,2.00,meteohub,2013-06-03 15:37:00,
2013-06-03 11:39:00,83.7,76.5,29.98,South,180,4.0,9.0,79,1.06,,,2.00,meteohub,2013-06-03 15:39:00,
2013-06-03 11:40:00,83.7,76.5,29.98,South,180,4.0,6.0,79,0.65,,,2.00,meteohub,2013-06-03 15:40:00,
2013-06-03 11:42:00,83.7,76.5,29.98,South,180,4.0,6.0,79,0.65,,,2.00,meteohub,2013-06-03 15:42:00,
2013-06-03 11:43:00,83.7,76.5,29.98,South,180,2.0,6.0,79,0.65,,,2.00,meteohub,2013-06-03 15:43:00,
2013-06-03 11:44:00,83.7,76.5,29.98,SE,135,4.0,6.0,79,0.65,,,2.00,meteohub,2013-06-03 15:44:00,
2013-06-03 11:45:00,83.7,76.1,29.98,SW,225,7.0,7.0,78,0.46,,,2.00,meteohub,2013-06-03 15:45:00,
2013-06-03 11:47:00,83.7,75.7,29.99,West,270,4.0,6.0,77,0.46,,,2.00,meteohub,2013-06-03 15:47:00,
2013-06-03 11:48:00,83.7,75.7,29.99,SE,135,4.0,6.0,77,0.46,,,2.00,meteohub,2013-06-03 15:48:00,
2013-06-03 11:50:00,83.7,76.1,29.99,SE,135,5.0,7.0,78,0.33,,,2.14,meteohub,2013-06-03 15:50:00,
2013-06-03 11:52:00,83.5,75.9,29.99,SW,225,3.0,7.0,78,0.33,,,2.14,meteohub,2013-06-03 15:52:00,
2013-06-03 11:53:00,83.7,76.1,29.99,WSW,248,4.0,7.0,78,0.33,,,2.14,meteohub,2013-06-03 15:53:00,
2013-06-03 11:54:00,83.7,76.5,29.99,SW,225,5.0,7.0,79,0.33,,,2.14,meteohub,2013-06-03 15:54:00,
2013-06-03 11:55:00,83.8,76.3,29.99,SW,225,6.0,7.0,78,0.38,,,2.20,meteohub,2013-06-03 15:55:00,
2013-06-03 11:58:00,84.0,76.5,29.99,SW,225,8.0,8.0,78,0.38,,,2.20,meteohub,2013-06-03 15:58:00,
2013-06-03 11:59:00,84.0,76.5,29.98,South,180,9.0,9.0,78,0.38,,,2.20,meteohub,2013-06-03 15:59:00,
2013-06-03 12:00:00,84.0,76.8,29.98,NW,315,7.0,8.0,79,0.38,,,2.20,meteohub,2013-06-03 16:00:00,
2013-06-03 12:02:00,83.8,76.6,29.98,SW,225,9.0,9.0,79,0.38,,,2.20,meteohub,2013-06-03 16:02:00,
2013-06-03 12:05:00,83.7,76.8,29.99,South,180,11.0,11.0,80,0.53,,,2.35,meteohub,2013-06-03 16:05:00,
2013-06-03 12:07:00,83.7,76.8,29.99,North,0,8.0,10.0,80,0.53,,,2.35,meteohub,2013-06-03 16:07:00,
2013-06-03 12:08:00,83.5,77.0,29.98,SW,225,3.0,10.0,81,0.53,,,2.35,meteohub,2013-06-03 16:08:00,
2013-06-03 12:10:00,83.7,77.2,29.99,SE,135,9.0,11.0,81,0.58,,,2.41,meteohub,2013-06-03 16:10:00,
2013-06-03 12:11:00,83.7,77.2,29.99,SW,225,8.0,11.0,81,0.58,,,2.41,meteohub,2013-06-03 16:11:00,
2013-06-03 12:12:00,83.7,76.8,29.98,SW,225,6.0,11.0,80,0.58,,,2.41,meteohub,2013-06-03 16:12:00,
2013-06-03 12:13:00,83.7,77.2,29.98,SW,225,4.0,11.0,81,0.58,,,2.41,meteohub,2013-06-03 16:13:00,
2013-06-03 12:14:00,83.7,77.2,29.98,SE,135,6.0,11.0,81,0.58,,,2.41,meteohub,2013-06-03 16:14:00,
2013-06-03 12:15:00,83.7,77.2,29.98,SW,225,6.0,11.0,81,0.67,,,2.52,meteohub,2013-06-03 16:15:00,
2013-06-03 12:17:00,83.8,77.4,29.98,West,270,5.0,11.0,81,0.67,,,2.52,meteohub,2013-06-03 16:17:00,
2013-06-03 12:18:00,83.8,77.4,29.98,SW,225,4.0,11.0,81,0.67,,,2.52,meteohub,2013-06-03 16:18:00,
2013-06-03 12:20:00,83.7,77.2,29.99,SW,225,7.0,11.0,81,0.98,,,2.88,meteohub,2013-06-03 16:20:00,
2013-06-03 12:22:00,83.5,77.0,29.98,South,180,8.0,11.0,81,0.98,,,2.88,meteohub,2013-06-03 16:22:00,
2013-06-03 12:23:00,83.5,77.0,29.99,South,180,5.0,11.0,81,0.98,,,2.88,meteohub,2013-06-03 16:23:00,
2013-06-03 12:26:00,83.3,76.8,29.98,SE,135,7.0,9.0,81,0.93,,,2.88,meteohub,2013-06-03 16:26:00,
2013-06-03 12:27:00,83.3,76.8,29.98,SW,225,5.0,9.0,81,0.93,,,2.88,meteohub,2013-06-03 16:27:00,
2013-06-03 12:28:00,83.3,76.5,29.98,East,90,3.0,9.0,80,0.93,,,2.88,meteohub,2013-06-03 16:28:00,
2013-06-03 12:30:00,83.3,76.8,29.98,SW,225,4.0,8.0,81,0.93,,,2.93,meteohub,2013-06-03 16:30:00,
2013-06-03 12:32:00,83.5,77.0,29.98,SW,225,4.0,8.0,81,0.93,,,2.93,meteohub,2013-06-03 16:32:00,
2013-06-03 12:33:00,83.5,77.0,29.98,South,180,6.0,8.0,81,0.93,,,2.93,meteohub,2013-06-03 16:33:00,
2013-06-03 12:35:00,83.5,77.0,29.98,South,180,4.0,9.0,81,1.06,,,3.06,meteohub,2013-06-03 16:35:00,
2013-06-03 12:37:00,83.5,77.0,29.98,South,180,7.0,9.0,81,1.06,,,3.06,meteohub,2013-06-03 16:37:00,
2013-06-03 12:38:00,83.5,77.0,29.98,South,180,7.0,9.0,81,1.06,,,3.06,meteohub,2013-06-03 16:38:00,
2013-06-03 12:41:00,82.9,76.8,29.98,South,180,6.0,9.0,82,1.29,,,3.28,meteohub,2013-06-03 16:41:00,
2013-06-03 12:42:00,82.9,76.8,29.98,SW,225,6.0,9.0,82,1.29,,,3.28,meteohub,2013-06-03 16:42:00,
2013-06-03 12:43:00,82.9,77.2,29.98,East,90,4.0,9.0,83,1.29,,,3.28,meteohub,2013-06-03 16:43:00,
2013-06-03 12:45:00,82.9,77.2,29.98,SE,135,4.0,10.0,83,1.29,,,3.28,meteohub,2013-06-03 16:45:00,
2013-06-03 12:46:00,83.1,77.0,29.98,South,180,4.0,10.0,82,1.29,,,3.28,meteohub,2013-06-03 16:46:00,
2013-06-03 12:48:00,83.1,77.0,29.98,NW,315,8.0,10.0,82,1.29,,,3.28,meteohub,2013-06-03 16:48:00,
2013-06-03 12:49:00,83.3,77.2,29.98,SE,135,9.0,10.0,82,1.29,,,3.28,meteohub,2013-06-03 16:49:00,
2013-06-03 12:51:00,83.3,76.8,29.98,SW,225,7.0,10.0,81,1.23,,,3.37,meteohub,2013-06-03 16:51:00,
2013-06-03 12:52:00,83.5,77.0,29.98,SW,225,9.0,10.0,81,1.23,,,3.37,meteohub,2013-06-03 16:52:00,
2013-06-03 12:54:00,83.7,76.8,29.97,SE,135,4.0,10.0,80,1.23,,,3.37,meteohub,2013-06-03 16:54:00,
2013-06-03 12:57:00,84.4,77.2,29.98,SW,225,6.0,10.0,79,1.64,,,3.84,meteohub,2013-06-03 16:57:00,
2013-06-03 12:59:00,84.4,76.8,29.98,South,180,4.0,10.0,78,1.64,,,3.84,meteohub,2013-06-03 16:59:00,
2013-06-03 13:01:00,84.4,76.8,29.98,South,180,9.0,10.0,78,1.96,,,4.30,meteohub,2013-06-03 17:01:00,
2013-06-03 13:02:00,84.4,76.8,29.97,SW,225,8.0,10.0,78,1.96,,,4.30,meteohub,2013-06-03 17:02:00,
2013-06-03 13:03:00,84.4,76.8,29.97,SW,225,6.0,10.0,78,1.96,,,4.30,meteohub,2013-06-03 17:03:00,
2013-06-03 13:04:00,84.6,77.0,29.97,SE,135,4.0,10.0,78,1.96,,,4.30,meteohub,2013-06-03 17:04:00,
2013-06-03 13:05:00,84.4,76.8,29.97,SE,135,4.0,10.0,78,2.06,,,4.44,meteohub,2013-06-03 17:05:00,
2013-06-03 13:07:00,84.7,77.2,29.97,SW,225,6.0,10.0,78,2.06,,,4.44,meteohub,2013-06-03 17:07:00,
2013-06-03 13:09:00,84.9,77.4,29.96,SE,135,8.0,10.0,78,2.06,,,4.44,meteohub,2013-06-03 17:09:00,
2013-06-03 13:10:00,84.9,77.4,29.97,South,180,6.0,10.0,78,3.06,,,5.50,meteohub,2013-06-03 17:10:00,
2013-06-03 13:12:00,85.3,77.2,29.97,SE,135,4.0,10.0,77,3.06,,,5.50,meteohub,2013-06-03 17:12:00,
2013-06-03 13:13:00,85.3,76.8,29.97,SW,225,11.0,11.0,76,3.06,,,5.50,meteohub,2013-06-03 17:13:00,
2013-06-03 13:15:00,84.9,76.5,29.96,SW,225,4.0,11.0,76,3.18,,,5.89,meteohub,2013-06-03 17:15:00,
2013-06-03 13:16:00,84.7,76.6,29.97,SW,225,9.0,11.0,77,3.18,,,5.89,meteohub,2013-06-03 17:16:00,
2013-06-03 13:17:00,84.7,76.6,29.97,WNW,293,8.0,11.0,77,3.18,,,5.89,meteohub,2013-06-03 17:17:00,
2013-06-03 13:19:00,84.7,76.6,29.97,West,270,5.0,11.0,77,3.18,,,5.89,meteohub,2013-06-03 17:19:00,
2013-06-03 13:20:00,84.7,76.6,29.96,SW,225,5.0,11.0,77,4.05,,,6.93,meteohub,2013-06-03 17:20:00,
2013-06-03 13:21:00,84.9,77.4,29.97,SW,225,11.0,11.0,78,4.05,,,6.93,meteohub,2013-06-03 17:21:00,
2013-06-03 13:22:00,84.9,77.4,29.97,SW,225,11.0,11.0,78,4.05,,,6.93,meteohub,2013-06-03 17:22:00,
2013-06-03 13:24:00,85.1,76.6,29.96,SW,225,4.0,11.0,76,4.05,,,6.93,meteohub,2013-06-03 17:24:00,
2013-06-03 13:25:00,85.3,77.2,29.96,North,0,10.0,11.0,77,5.37,,,8.26,meteohub,2013-06-03 17:25:00,
2013-06-03 13:26:00,85.3,77.2,29.96,North,0,10.0,11.0,77,5.37,,,8.26,meteohub,2013-06-03 17:26:00,
2013-06-03 13:27:00,85.1,76.6,29.96,NW,315,9.0,11.0,76,5.37,,,8.26,meteohub,2013-06-03 17:27:00,
2013-06-03 13:30:00,85.3,76.8,29.96,SW,225,5.0,11.0,76,5.37,,,9.06,meteohub,2013-06-03 17:30:00,
2013-06-03 13:32:00,85.5,77.4,29.96,SW,225,8.0,11.0,77,6.11,,,9.06,meteohub,2013-06-03 17:32:00,
2013-06-03 13:34:00,85.8,77.7,29.96,SW,225,4.0,11.0,77,6.11,,,9.06,meteohub,2013-06-03 17:34:00,
2013-06-03 13:36:00,86.0,77.5,29.96,West,270,9.0,11.0,76,6.02,,,9.08,meteohub,2013-06-03 17:36:00,
2013-06-03 13:37:00,86.0,77.5,29.96,South,180,4.0,11.0,76,6.02,,,9.08,meteohub,2013-06-03 17:37:00,
2013-06-03 13:38:00,86.0,77.2,29.96,SW,225,8.0,11.0,75,6.02,,,9.08,meteohub,2013-06-03 17:38:00,
2013-06-03 13:42:00,85.5,77.4,29.96,SW,225,8.0,10.0,77,5.83,,,9.12,meteohub,2013-06-03 17:42:00,
2013-06-03 13:43:00,85.5,77.4,29.96,SW,225,10.0,10.0,77,5.83,,,9.12,meteohub,2013-06-03 17:43:00,
2013-06-03 13:44:00,85.3,76.8,29.96,SW,225,9.0,10.0,76,5.83,,,9.12,meteohub,2013-06-03 17:44:00,
2013-06-03 13:47:00,84.4,76.5,29.96,South,180,10.0,11.0,77,5.83,,,9.12,meteohub,2013-06-03 17:47:00,
2013-06-03 13:49:00,84.2,77.0,29.96,SW,225,11.0,11.0,79,5.83,,,9.12,meteohub,2013-06-03 17:49:00,
2013-06-03 13:50:00,84.2,77.0,29.96,SW,225,11.0,11.0,79,5.69,,,9.12,meteohub,2013-06-03 17:50:00,
2013-06-03 13:52:00,84.2,76.6,29.96,SW,225,9.0,11.0,78,5.69,,,9.12,meteohub,2013-06-03 17:52:00,
2013-06-03 13:54:00,84.4,76.8,29.96,SE,135,6.0,11.0,78,5.69,,,9.12,meteohub,2013-06-03 17:54:00,
2013-06-03 13:56:00,84.9,77.4,29.96,South,180,6.0,11.0,78,5.04,,,9.13,meteohub,2013-06-03 17:56:00,
2013-06-03 13:57:00,85.1,77.5,29.96,NW,315,8.0,11.0,78,5.04,,,9.13,meteohub,2013-06-03 17:57:00,
2013-06-03 13:59:00,85.3,74.8,29.96,SW,225,8.0,11.0,71,5.04,,,9.13,meteohub,2013-06-03 17:59:00,
2013-06-03 14:00:00,85.3,74.8,29.96,SW,225,8.0,11.0,71,5.04,,,9.13,meteohub,2013-06-03 18:00:00,
2013-06-03 14:02:00,85.5,74.5,29.96,SW,225,9.0,11.0,70,4.83,,,9.14,meteohub,2013-06-03 18:02:00,
2013-06-03 14:03:00,85.6,75.2,29.96,NW,315,8.0,11.0,71,4.83,,,9.14,meteohub,2013-06-03 18:03:00,
2013-06-03 14:05:00,85.5,75.7,29.96,West,270,11.0,11.0,73,4.32,,,9.15,meteohub,2013-06-03 18:05:00,
2013-06-03 14:06:00,85.5,76.3,29.96,West,270,9.0,11.0,74,4.32,,,9.15,meteohub,2013-06-03 18:06:00,
2013-06-03 14:07:00,85.3,76.1,29.96,SW,225,8.0,11.0,74,4.32,,,9.15,meteohub,2013-06-03 18:07:00,
2013-06-03 14:08:00,84.7,76.3,29.96,South,180,12.0,12.0,76,4.32,,,9.15,meteohub,2013-06-03 18:08:00,
2013-06-03 14:12:00,83.7,76.1,29.96,NW,315,11.0,12.0,78,3.59,,,9.17,meteohub,2013-06-03 18:12:00,
2013-06-03 14:14:00,83.1,75.9,29.96,SW,225,8.0,12.0,79,3.59,,,9.17,meteohub,2013-06-03 18:14:00,
2013-06-03 14:15:00,83.1,75.9,29.96,SW,225,11.0,12.0,79,3.27,,,9.17,meteohub,2013-06-03 18:15:00,
2013-06-03 14:17:00,82.6,75.0,29.96,West,270,11.0,12.0,78,3.27,,,9.17,meteohub,2013-06-03 18:17:00,
2013-06-03 14:20:00,82.4,74.8,29.96,SW,225,12.0,12.0,78,1.45,,,9.17,meteohub,2013-06-03 18:20:00,
2013-06-03 14:21:00,82.2,75.0,29.96,North,0,8.0,12.0,79,1.45,,,9.17,meteohub,2013-06-03 18:21:00,
2013-06-03 14:23:00,82.4,74.8,29.96,NW,315,8.0,12.0,78,1.45,,,9.17,meteohub,2013-06-03 18:23:00,
2013-06-03 14:26:00,82.4,74.8,29.96,North,0,12.0,12.0,78,0.65,,,9.17,meteohub,2013-06-03 18:26:00,
2013-06-03 14:27:00,82.4,74.8,29.96,North,0,12.0,12.0,78,0.65,,,9.17,meteohub,2013-06-03 18:27:00,
2013-06-03 14:29:00,82.4,74.8,29.96,SW,225,13.0,13.0,78,0.65,,,9.17,meteohub,2013-06-03 18:29:00,
2013-06-03 14:32:00,82.4,74.8,29.96,WSW,248,8.0,12.0,78,0.15,,,9.21,meteohub,2013-06-03 18:32:00,
2013-06-03 14:33:00,82.6,75.4,29.96,SW,225,11.0,12.0,79,0.15,,,9.21,meteohub,2013-06-03 18:33:00,
2013-06-03 14:34:00,82.6,75.4,29.95,SW,225,11.0,12.0,79,0.15,,,9.21,meteohub,2013-06-03 18:34:00,
2013-06-03 14:36:00,82.6,75.0,29.96,SW,225,9.0,13.0,78,0.09,,,9.21,meteohub,2013-06-03 18:36:00,
2013-06-03 14:37:00,82.6,75.0,29.96,SW,225,11.0,13.0,78,0.09,,,9.21,meteohub,2013-06-03 18:37:00,
2013-06-03 14:39:00,82.4,74.8,29.96,NW,315,13.0,13.0,78,0.09,,,9.21,meteohub,2013-06-03 18:39:00,
2013-06-03 14:42:00,82.4,75.2,29.96,NW,315,10.0,13.0,79,0.09,,,9.21,meteohub,2013-06-03 18:42:00,
2013-06-03 14:43:00,82.4,75.6,29.96,West,270,15.0,15.0,80,0.09,,,9.21,meteohub,2013-06-03 18:43:00,
2013-06-03 14:45:00,82.4,75.6,29.96,SW,225,8.0,15.0,80,0.09,,,9.21,meteohub,2013-06-03 18:45:00,
2013-06-03 14:47:00,82.6,75.7,29.95,SW,225,6.0,15.0,80,0.09,,,9.21,meteohub,2013-06-03 18:47:00,
2013-06-03 14:50:00,83.3,76.1,29.95,SW,225,8.0,15.0,79,0.09,,,9.21,meteohub,2013-06-03 18:50:00,
2013-06-03 14:52:00,83.5,75.9,29.95,SW,225,8.0,15.0,78,0.09,,,9.21,meteohub,2013-06-03 18:52:00,
2013-06-03 14:53:00,83.5,75.9,29.95,SW,225,6.0,15.0,78,0.09,,,9.21,meteohub,2013-06-03 18:53:00,
2013-06-03 14:56:00,83.7,76.1,29.96,South,180,7.0,15.0,78,0.07,,,9.21,meteohub,2013-06-03 18:56:00,
2013-06-03 14:58:00,83.8,75.9,29.96,NW,315,11.0,15.0,77,0.07,,,9.21,meteohub,2013-06-03 18:58:00,
2013-06-03 14:59:00,83.8,75.9,29.96,SW,225,11.0,15.0,77,0.07,,,9.21,meteohub,2013-06-03 18:59:00,
2013-06-03 15:00:00,83.7,75.7,29.96,West,270,10.0,11.0,77,0.08,,,9.22,meteohub,2013-06-03 19:00:00,
2013-06-03 15:01:00,83.5,75.6,29.96,NW,315,9.0,11.0,77,0.08,,,9.22,meteohub,2013-06-03 19:01:00,
2013-06-03 15:02:00,83.5,75.6,29.96,NW,315,9.0,11.0,77,0.08,,,9.22,meteohub,2013-06-03 19:02:00,
2013-06-03 15:04:00,83.1,75.2,29.96,SW,225,12.0,12.0,77,0.08,,,9.22,meteohub,2013-06-03 19:04:00,
2013-06-03 15:06:00,82.6,75.0,29.96,NW,315,13.0,13.0,78,0.09,,,9.25,meteohub,2013-06-03 19:06:00,
2013-06-03 15:07:00,82.6,75.0,29.96,NW,315,13.0,13.0,78,0.09,,,9.25,meteohub,2013-06-03 19:07:00,
2013-06-03 15:09:00,82.6,75.0,29.96,SW,225,14.0,14.0,78,0.09,,,9.25,meteohub,2013-06-03 19:09:00,
2013-06-03 15:12:00,82.6,75.0,29.95,NW,315,10.0,13.0,78,0.08,,,9.25,meteohub,2013-06-03 19:12:00,
2013-06-03 15:13:00,82.4,74.8,29.95,SW,225,9.0,13.0,78,0.08,,,9.25,meteohub,2013-06-03 19:13:00,
2013-06-03 15:16:00,82.6,74.7,29.95,SW,225,9.0,14.0,77,0.09,,,9.26,meteohub,2013-06-03 19:16:00,
2013-06-03 15:18:00,82.6,74.7,29.95,NW,315,9.0,14.0,77,0.09,,,9.26,meteohub,2013-06-03 19:18:00,
2013-06-03 15:19:00,82.6,75.0,29.95,West,270,10.0,14.0,78,0.09,,,9.26,meteohub,2013-06-03 19:19:00,
2013-06-03 15:20:00,82.4,74.8,29.96,SW,225,11.0,14.0,78,0.11,,,9.27,meteohub,2013-06-03 19:20:00,
2013-06-03 15:23:00,82.4,74.8,29.95,SW,225,9.0,14.0,78,0.11,,,9.27,meteohub,2013-06-03 19:23:00,
2013-06-03 15:24:00,82.4,75.2,29.95,West,270,8.0,14.0,79,0.11,,,9.27,meteohub,2013-06-03 19:24:00,
2013-06-03 15:25:00,82.4,74.8,29.95,NW,315,8.0,14.0,78,0.11,,,9.27,meteohub,2013-06-03 19:25:00,
2013-06-03 15:26:00,82.6,75.0,29.95,SW,225,9.0,13.0,78,0.09,,,9.27,meteohub,2013-06-03 19:26:00,
2013-06-03 15:28:00,82.6,74.7,29.95,NW,315,10.0,13.0,77,0.09,,,9.27,meteohub,2013-06-03 19:28:00,
2013-06-03 15:29:00,82.6,74.7,29.95,SW,225,10.0,13.0,77,0.09,,,9.27,meteohub,2013-06-03 19:29:00,
2013-06-03 15:30:00,82.8,74.8,29.94,South,180,7.0,16.0,77,0.15,,,9.37,meteohub,2013-06-03 19:30:00,
2013-06-03 15:35:00,82.8,74.8,29.94,SW,225,12.0,16.0,77,0.51,,,9.72,meteohub,2013-06-03 19:35:00,
2013-06-03 15:36:00,82.8,74.8,29.94,SW,225,11.0,16.0,77,0.51,,,9.72,meteohub,2013-06-03 19:36:00,
2013-06-03 15:37:00,82.8,74.8,29.94,SW,225,11.0,16.0,77,0.51,,,9.72,meteohub,2013-06-03 19:37:00,
2013-06-03 15:38:00,82.8,74.8,29.94,South,180,11.0,16.0,77,0.51,,,9.72,meteohub,2013-06-03 19:38:00,
2013-06-03 15:40:00,82.8,75.2,29.94,SW,225,8.0,16.0,78,0.51,,,9.72,meteohub,2013-06-03 19:40:00,
2013-06-03 15:41:00,82.9,75.0,29.94,South,180,7.0,16.0,77,0.51,,,9.72,meteohub,2013-06-03 19:41:00,
2013-06-03 15:42:00,83.1,75.2,29.94,SW,225,9.0,16.0,77,0.51,,,9.72,meteohub,2013-06-03 19:42:00,
2013-06-03 15:43:00,83.3,75.4,29.94,SW,225,7.0,16.0,77,0.51,,,9.72,meteohub,2013-06-03 19:43:00,
2013-06-03 15:45:00,83.1,75.2,29.94,WNW,293,7.0,15.0,77,0.52,,,9.73,meteohub,2013-06-03 19:45:00,
2013-06-03 15:48:00,83.3,75.4,29.94,SW,225,7.0,15.0,77,0.52,,,9.73,meteohub,2013-06-03 19:48:00,
2013-06-03 15:49:00,83.3,75.4,29.94,SW,225,11.0,15.0,77,0.52,,,9.73,meteohub,2013-06-03 19:49:00,
2013-06-03 15:51:00,83.3,75.0,29.94,West,270,13.0,15.0,76,0.52,,,9.73,meteohub,2013-06-03 19:51:00,
2013-06-03 15:53:00,82.9,74.7,29.94,SW,225,7.0,15.0,76,0.52,,,9.73,meteohub,2013-06-03 19:53:00,
2013-06-03 15:54:00,82.9,75.0,29.94,West,270,5.0,15.0,77,0.52,,,9.73,meteohub,2013-06-03 19:54:00,
2013-06-03 15:56:00,83.1,75.2,29.94,SW,225,10.0,15.0,77,0.51,,,9.73,meteohub,2013-06-03 19:56:00,
2013-06-03 15:57:00,83.1,75.2,29.94,West,270,8.0,15.0,77,0.51,,,9.73,meteohub,2013-06-03 19:57:00,
2013-06-03 16:00:00,82.9,74.7,29.95,SW,225,11.0,15.0,76,0.51,,,9.73,meteohub,2013-06-03 20:00:00,
2013-06-03 16:01:00,82.9,74.7,29.94,SW,225,11.0,15.0,76,0.51,,,9.73,meteohub,2013-06-03 20:01:00,
2013-06-03 16:02:00,82.8,73.9,29.95,SW,225,11.0,15.0,75,0.51,,,9.73,meteohub,2013-06-03 20:02:00,
2013-06-03 16:05:00,82.2,74.3,29.94,SW,225,8.0,15.0,77,0.48,,,9.73,meteohub,2013-06-03 20:05:00,
2013-06-03 16:06:00,82.2,74.3,29.94,WNW,293,8.0,15.0,77,0.48,,,9.73,meteohub,2013-06-03 20:06:00,
2013-06-03 16:08:00,82.0,74.5,29.95,South,180,10.0,15.0,78,0.48,,,9.73,meteohub,2013-06-03 20:08:00,
2013-06-03 16:09:00,82.0,74.5,29.94,SW,225,10.0,15.0,78,0.48,,,9.73,meteohub,2013-06-03 20:09:00,
2013-06-03 16:11:00,82.0,74.5,29.94,SW,225,11.0,11.0,78,0.47,,,9.73,meteohub,2013-06-03 20:11:00,
2013-06-03 16:13:00,82.0,74.5,29.94,SW,225,4.0,11.0,78,0.47,,,9.73,meteohub,2013-06-03 20:13:00,
2013-06-03 16:15:00,82.0,74.8,29.94,SW,225,11.0,11.0,79,0.48,,,9.74,meteohub,2013-06-03 20:15:00,
2013-06-03 16:18:00,81.9,74.7,29.94,West,270,5.0,11.0,79,0.48,,,9.74,meteohub,2013-06-03 20:18:00,
2013-06-03 16:19:00,81.9,74.7,29.95,SW,225,9.0,11.0,79,0.48,,,9.74,meteohub,2013-06-03 20:19:00,
2013-06-03 16:20:00,81.9,74.7,29.95,NW,315,5.0,11.0,79,0.47,,,9.74,meteohub,2013-06-03 20:20:00,
2013-06-03 16:22:00,82.0,74.8,29.95,SW,225,8.0,11.0,79,0.47,,,9.74,meteohub,2013-06-03 20:22:00,
2013-06-03 16:24:00,82.0,74.8,29.94,South,180,9.0,11.0,79,0.47,,,9.74,meteohub,2013-06-03 20:24:00,
2013-06-03 16:26:00,82.0,74.8,29.94,West,270,7.0,11.0,79,0.47,,,9.76,meteohub,2013-06-03 20:26:00,
2013-06-03 16:27:00,82.0,74.8,29.94,West,270,10.0,11.0,79,0.47,,,9.76,meteohub,2013-06-03 20:27:00,
2013-06-03 16:28:00,82.0,74.8,29.94,SW,225,9.0,11.0,79,0.47,,,9.76,meteohub,2013-06-03 20:28:00,
2013-06-03 16:30:00,82.0,74.8,29.94,West,270,6.0,11.0,79,0.47,,,9.77,meteohub,2013-06-03 20:30:00,
2013-06-03 16:32:00,82.0,74.8,29.94,SW,225,9.0,11.0,79,0.33,,,9.77,meteohub,2013-06-03 20:32:00,
2013-06-03 16:34:00,82.0,75.2,29.94,SW,225,8.0,11.0,80,0.33,,,9.77,meteohub,2013-06-03 20:34:00,
2013-06-03 16:35:00,82.0,74.8,29.94,NW,315,11.0,11.0,79,0.05,,,9.77,meteohub,2013-06-03 20:35:00,
2013-06-03 16:36:00,81.9,75.0,29.95,SW,225,8.0,10.0,80,0.05,,,9.77,meteohub,2013-06-03 20:36:00,
2013-06-03 16:39:00,81.9,75.0,29.95,SW,225,6.0,10.0,80,0.05,,,9.77,meteohub,2013-06-03 20:39:00,
2013-06-03 16:42:00,81.9,75.0,29.95,SE,135,6.0,11.0,80,0.05,,,9.77,meteohub,2013-06-03 20:42:00,
2013-06-03 16:43:00,81.9,75.4,29.95,SW,225,11.0,11.0,81,0.05,,,9.77,meteohub,2013-06-03 20:43:00,
2013-06-03 16:45:00,81.7,75.2,29.95,NW,315,9.0,13.0,81,0.04,,,9.77,meteohub,2013-06-03 20:45:00,
2013-06-03 16:47:00,81.5,75.0,29.95,SW,225,10.0,13.0,81,0.04,,,9.77,meteohub,2013-06-03 20:47:00,
2013-06-03 16:48:00,81.5,75.0,29.95,SE,135,9.0,13.0,81,0.04,,,9.77,meteohub,2013-06-03 20:48:00,
2013-06-03 16:49:00,81.5,75.0,29.95,South,180,10.0,13.0,81,0.04,,,9.77,meteohub,2013-06-03 20:49:00,
2013-06-03 16:50:00,81.5,75.0,29.95,South,180,10.0,13.0,81,0.04,,,9.77,meteohub,2013-06-03 20:50:00,
2013-06-03 16:51:00,81.5,75.0,29.95,SW,225,11.0,13.0,81,0.04,,,9.77,meteohub,2013-06-03 20:51:00,
2013-06-03 16:54:00,81.3,74.8,29.95,South,180,8.0,13.0,81,0.04,,,9.77,meteohub,2013-06-03 20:54:00,
2013-06-03 16:55:00,81.3,75.4,29.95,South,180,11.0,13.0,82,0.05,,,9.78,meteohub,2013-06-03 20:55:00,
2013-06-03 16:56:00,81.3,75.4,29.95,SW,225,9.0,13.0,82,0.05,,,9.78,meteohub,2013-06-03 20:56:00,
2013-06-03 16:57:00,81.3,75.4,29.95,NW,315,10.0,13.0,82,0.05,,,9.78,meteohub,2013-06-03 20:57:00,
2013-06-03 17:00:00,81.5,75.4,29.95,SW,225,13.0,13.0,82,0.05,,,9.78,meteohub,2013-06-03 21:00:00,
2013-06-03 17:01:00,81.5,75.0,29.95,NW,315,9.0,12.0,81,0.05,,,9.78,meteohub,2013-06-03 21:01:00,
2013-06-03 17:02:00,81.5,75.0,29.95,SW,225,11.0,12.0,81,0.05,,,9.78,meteohub,2013-06-03 21:02:00,
2013-06-03 17:03:00,81.3,74.8,29.95,SW,225,11.0,12.0,81,0.05,,,9.78,meteohub,2013-06-03 21:03:00,
2013-06-03 17:07:00,81.3,75.4,29.94,SW,225,6.0,13.0,82,0.05,,,9.78,meteohub,2013-06-03 21:07:00,
2013-06-03 17:08:00,81.5,75.4,29.94,NW,315,8.0,13.0,82,0.05,,,9.78,meteohub,2013-06-03 21:08:00,
2013-06-03 17:09:00,81.5,75.4,29.94,NW,315,8.0,13.0,82,0.05,,,9.78,meteohub,2013-06-03 21:09:00,
2013-06-03 17:10:00,81.5,75.4,29.94,South,180,10.0,13.0,82,0.05,,,9.78,meteohub,2013-06-03 21:10:00,
2013-06-03 17:12:00,81.7,75.6,29.95,NW,315,10.0,13.0,82,0.05,,,9.78,meteohub,2013-06-03 21:12:00,
2013-06-03 17:15:00,81.9,75.4,29.95,SW,225,8.0,13.0,81,0.04,,,9.78,meteohub,2013-06-03 21:15:00,
2013-06-03 17:17:00,81.9,75.7,29.95,SW,225,14.0,14.0,82,0.04,,,9.78,meteohub,2013-06-03 21:17:00,
2013-06-03 17:18:00,81.7,75.6,29.94,SW,225,9.0,13.0,82,0.04,,,9.78,meteohub,2013-06-03 21:18:00,
2013-06-03 17:22:00,81.9,75.7,29.94,SW,225,5.0,14.0,82,0.04,,,9.78,meteohub,2013-06-03 21:22:00,
2013-06-03 17:23:00,82.0,75.9,29.94,SE,135,11.0,14.0,82,0.04,,,9.78,meteohub,2013-06-03 21:23:00,
2013-06-03 17:26:00,82.2,75.7,29.94,SW,225,8.0,14.0,81,0.02,,,9.78,meteohub,2013-06-03 21:26:00,
2013-06-03 17:28:00,82.2,75.7,29.94,SW,225,11.0,14.0,81,0.02,,,9.78,meteohub,2013-06-03 21:28:00,
2013-06-03 17:29:00,82.2,75.7,29.94,South,180,11.0,14.0,81,0.02,,,9.78,meteohub,2013-06-03 21:29:00,
2013-06-03 17:33:00,82.2,75.7,29.94,SW,225,12.0,14.0,81,0.04,,,9.80,meteohub,2013-06-03 21:33:00,
2013-06-03 17:34:00,82.2,75.7,29.94,SW,225,15.0,15.0,81,0.04,,,9.80,meteohub,2013-06-03 21:34:00,
2013-06-03 17:35:00,82.2,75.7,29.94,South,180,7.0,15.0,81,0.04,,,9.80,meteohub,2013-06-03 21:35:00,
2013-06-03 17:37:00,82.2,75.7,29.94,SW,225,10.0,15.0,81,0.04,,,9.80,meteohub,2013-06-03 21:37:00,
2013-06-03 17:39:00,82.2,75.7,29.94,NNE,23,13.0,15.0,81,0.04,,,9.80,meteohub,2013-06-03 21:39:00,
2013-06-03 17:40:00,82.0,75.6,29.94,South,180,11.0,15.0,81,0.05,,,9.81,meteohub,2013-06-03 21:40:00,
2013-06-03 17:42:00,81.9,75.4,29.94,SW,225,9.0,15.0,81,0.05,,,9.81,meteohub,2013-06-03 21:42:00,
2013-06-03 17:46:00,81.5,75.0,29.94,SW,225,11.0,15.0,81,0.05,,,9.81,meteohub,2013-06-03 21:46:00,
2013-06-03 17:47:00,81.5,75.0,29.94,NW,315,11.0,15.0,81,0.05,,,9.81,meteohub,2013-06-03 21:47:00,
2013-06-03 17:48:00,81.5,75.4,29.94,South,180,11.0,15.0,82,0.05,,,9.81,meteohub,2013-06-03 21:48:00,
2013-06-03 17:52:00,81.3,75.4,29.94,SW,225,7.0,15.0,82,0.05,,,9.81,meteohub,2013-06-03 21:52:00,
2013-06-03 17:53:00,81.5,75.4,29.94,WNW,293,10.0,15.0,82,0.05,,,9.81,meteohub,2013-06-03 21:53:00,
2013-06-03 17:54:00,81.5,75.4,29.94,WNW,293,10.0,15.0,82,0.05,,,9.81,meteohub,2013-06-03 21:54:00,
2013-06-03 17:55:00,81.5,75.4,29.94,South,180,8.0,12.0,82,0.04,,,9.81,meteohub,2013-06-03 21:55:00,
2013-06-03 17:57:00,81.3,75.4,29.94,South,180,13.0,13.0,82,0.04,,,9.81,meteohub,2013-06-03 21:57:00,
2013-06-03 17:59:00,81.3,75.7,29.94,NNW,338,13.0,13.0,83,0.04,,,9.81,meteohub,2013-06-03 21:59:00,
2013-06-03 18:00:00,81.3,75.4,29.94,SW,225,11.0,15.0,82,0.04,,,9.81,meteohub,2013-06-03 22:00:00,
2013-06-03 18:02:00,81.3,75.7,29.94,South,180,11.0,15.0,83,0.04,,,9.81,meteohub,2013-06-03 22:02:00,
2013-06-03 18:04:00,81.3,75.7,29.94,South,180,11.0,15.0,83,0.04,,,9.81,meteohub,2013-06-03 22:04:00,
2013-06-03 18:05:00,81.3,75.7,29.94,SW,225,10.0,15.0,83,0.06,,,9.84,meteohub,2013-06-03 22:05:00,
2013-06-03 18:06:00,81.3,75.7,29.94,South,180,8.0,15.0,83,0.06,,,9.84,meteohub,2013-06-03 22:06:00,
2013-06-03 18:08:00,81.3,75.7,29.95,SW,225,4.0,15.0,83,0.06,,,9.84,meteohub,2013-06-03 22:08:00,
2013-06-03 18:11:00,81.5,75.9,29.94,SW,225,12.0,15.0,83,0.06,,,9.84,meteohub,2013-06-03 22:11:00,
2013-06-03 18:12:00,81.5,75.9,29.94,SW,225,12.0,15.0,83,0.06,,,9.84,meteohub,2013-06-03 22:12:00,
2013-06-03 18:13:00,81.5,75.9,29.95,South,180,6.0,15.0,83,0.06,,,9.84,meteohub,2013-06-03 22:13:00,
2013-06-03 18:14:00,81.5,75.4,29.94,South,180,10.0,15.0,82,0.06,,,9.84,meteohub,2013-06-03 22:14:00,
2013-06-03 18:15:00,81.5,75.4,29.94,South,180,5.0,13.0,82,0.08,,,9.86,meteohub,2013-06-03 22:15:00,
2013-06-03 18:17:00,81.7,75.6,29.94,SW,225,10.0,13.0,82,0.08,,,9.86,meteohub,2013-06-03 22:17:00,
2013-06-03 18:18:00,81.7,75.6,29.94,South,180,8.0,13.0,82,0.08,,,9.86,meteohub,2013-06-03 22:18:00,
2013-06-03 18:19:00,81.7,75.6,29.94,South,180,8.0,13.0,82,0.08,,,9.86,meteohub,2013-06-03 22:19:00,
2013-06-03 18:20:00,81.5,75.4,29.94,South,180,11.0,13.0,82,0.08,,,9.86,meteohub,2013-06-03 22:20:00,
2013-06-03 18:21:00,81.5,75.4,29.94,SW,225,8.0,13.0,82,0.08,,,9.86,meteohub,2013-06-03 22:21:00,
2013-06-03 18:24:00,81.5,75.4,29.94,SW,225,8.0,13.0,82,0.08,,,9.86,meteohub,2013-06-03 22:24:00,
2013-06-03 18:26:00,81.5,75.4,29.94,SW,225,12.0,13.0,82,0.09,,,9.87,meteohub,2013-06-03 22:26:00,
2013-06-03 18:27:00,81.5,75.4,29.94,SW,225,13.0,13.0,82,0.09,,,9.87,meteohub,2013-06-03 22:27:00,
2013-06-03 18:28:00,81.3,75.4,29.94,SW,225,11.0,13.0,82,0.09,,,9.87,meteohub,2013-06-03 22:28:00,
2013-06-03 18:30:00,81.3,75.4,29.95,SW,225,11.0,14.0,82,0.07,,,9.87,meteohub,2013-06-03 22:30:00,
2013-06-03 18:33:00,81.1,75.6,29.94,SW,225,15.0,15.0,83,0.07,,,9.87,meteohub,2013-06-03 22:33:00,
2013-06-03 18:34:00,81.1,75.6,29.95,SW,225,10.0,14.0,83,0.07,,,9.87,meteohub,2013-06-03 22:34:00,
2013-06-03 18:35:00,81.1,75.6,29.95,SW,225,10.0,15.0,83,0.08,,,9.89,meteohub,2013-06-03 22:35:00,
2013-06-03 18:39:00,81.0,75.7,29.95,SW,225,11.0,15.0,84,0.08,,,9.89,meteohub,2013-06-03 22:39:00,
2013-06-03 18:40:00,81.0,75.7,29.95,SW,225,9.0,15.0,84,0.07,,,9.89,meteohub,2013-06-03 22:40:00,
2013-06-03 18:41:00,81.0,75.7,29.95,SW,225,9.0,15.0,84,0.07,,,9.89,meteohub,2013-06-03 22:41:00,
2013-06-03 18:42:00,80.8,75.6,29.95,SW,225,8.0,15.0,84,0.07,,,9.89,meteohub,2013-06-03 22:42:00,
2013-06-03 18:46:00,80.8,75.2,29.96,East,90,11.0,15.0,83,0.08,,,9.90,meteohub,2013-06-03 22:46:00,
2013-06-03 18:47:00,80.6,74.7,29.96,SW,225,11.0,15.0,82,0.08,,,9.90,meteohub,2013-06-03 22:47:00,
2013-06-03 18:48:00,80.6,74.7,29.96,SW,225,10.0,15.0,82,0.08,,,9.90,meteohub,2013-06-03 22:48:00,
2013-06-03 18:50:00,80.6,74.7,29.96,SW,225,8.0,11.0,82,0.08,,,9.90,meteohub,2013-06-03 22:50:00,
2013-06-03 18:52:00,80.6,74.7,29.96,SW,225,10.0,11.0,82,0.08,,,9.90,meteohub,2013-06-03 22:52:00,
2013-06-03 18:53:00,80.6,74.7,29.96,SW,225,11.0,11.0,82,0.08,,,9.90,meteohub,2013-06-03 22:53:00,
2013-06-03 18:55:00,80.4,75.2,29.95,West,270,10.0,11.0,84,0.08,,,9.90,meteohub,2013-06-03 22:55:00,
2013-06-03 18:58:00,80.2,75.0,29.96,SW,225,14.0,14.0,84,0.08,,,9.90,meteohub,2013-06-03 22:58:00,
2013-06-03 19:01:00,80.1,74.8,29.96,SW,225,6.0,14.0,84,0.08,,,9.90,meteohub,2013-06-03 23:01:00,
2013-06-03 19:03:00,80.1,75.2,29.96,South,180,10.0,14.0,85,0.08,,,9.90,meteohub,2013-06-03 23:03:00,
2013-06-03 19:04:00,80.1,75.2,29.96,South,180,10.0,14.0,85,0.08,,,9.90,meteohub,2013-06-03 23:04:00,
2013-06-03 19:07:00,79.9,75.0,29.96,South,180,8.0,14.0,85,0.06,,,9.90,meteohub,2013-06-03 23:07:00,
2013-06-03 19:08:00,79.9,75.0,29.96,West,270,14.0,14.0,85,0.06,,,9.90,meteohub,2013-06-03 23:08:00,
2013-06-03 19:09:00,79.9,75.0,29.96,South,180,15.0,15.0,85,0.06,,,9.90,meteohub,2013-06-03 23:09:00,
2013-06-03 19:12:00,79.9,75.0,29.96,NE,45,12.0,14.0,85,0.05,,,9.90,meteohub,2013-06-03 23:12:00,
2013-06-03 19:13:00,79.9,75.0,29.96,NE,45,4.0,14.0,85,0.05,,,9.90,meteohub,2013-06-03 23:13:00,
2013-06-03 19:15:00,79.9,75.0,29.96,South,180,9.0,15.0,85,0.04,,,9.90,meteohub,2013-06-03 23:15:00,
2013-06-03 19:17:00,79.9,75.0,29.96,SW,225,5.0,15.0,85,0.04,,,9.90,meteohub,2013-06-03 23:17:00,
2013-06-03 19:19:00,80.1,75.2,29.96,South,180,11.0,15.0,85,0.04,,,9.90,meteohub,2013-06-03 23:19:00,
2013-06-03 19:21:00,80.1,75.2,29.96,SW,225,11.0,15.0,85,0.02,,,9.90,meteohub,2013-06-03 23:21:00,
2013-06-03 19:22:00,80.1,75.2,29.96,WSW,248,4.0,15.0,85,0.02,,,9.90,meteohub,2013-06-03 23:22:00,
2013-06-03 19:26:00,80.1,75.2,29.96,SW,225,8.0,12.0,85,0.02,,,9.90,meteohub,2013-06-03 23:26:00,
2013-06-03 19:27:00,80.1,75.2,29.96,SW,225,8.0,12.0,85,0.02,,,9.90,meteohub,2013-06-03 23:27:00,
2013-06-03 19:28:00,80.1,75.2,29.96,South,180,12.0,12.0,85,0.02,,,9.90,meteohub,2013-06-03 23:28:00,
2013-06-03 19:29:00,80.1,75.2,29.96,South,180,9.0,12.0,85,0.02,,,9.90,meteohub,2013-06-03 23:29:00,
2013-06-03 19:30:00,80.1,75.2,29.97,North,0,11.0,12.0,85,0.02,,,9.90,meteohub,2013-06-03 23:30:00,
2013-06-03 19:31:00,79.7,74.8,29.97,North,0,8.0,12.0,85,0.02,,,9.90,meteohub,2013-06-03 23:31:00,
2013-06-03 19:33:00,79.7,74.8,29.97,SW,225,7.0,12.0,85,0.02,,,9.90,meteohub,2013-06-03 23:33:00,
2013-06-03 19:35:00,79.7,74.8,29.96,South,180,13.0,13.0,85,0.01,,,9.90,meteohub,2013-06-03 23:35:00,
2013-06-03 19:36:00,79.7,74.8,29.97,NW,315,8.0,12.0,85,0.01,,,9.90,meteohub,2013-06-03 23:36:00,
2013-06-03 19:37:00,79.7,74.8,29.97,SW,225,5.0,12.0,85,0.01,,,9.90,meteohub,2013-06-03 23:37:00,
2013-06-03 19:40:00,79.7,74.8,29.97,West,270,3.0,13.0,85,0.00,,,9.90,meteohub,2013-06-03 23:40:00,
2013-06-03 19:41:00,79.7,74.8,29.97,SW,225,10.0,13.0,85,0.00,,,9.90,meteohub,2013-06-03 23:41:00,
2013-06-03 19:42:00,79.7,74.8,29.97,SW,225,11.0,13.0,85,0.00,,,9.90,meteohub,2013-06-03 23:42:00,
2013-06-03 19:45:00,79.7,74.5,29.97,West,270,8.0,13.0,84,0.00,,,9.90,meteohub,2013-06-03 23:45:00,
2013-06-03 19:47:00,79.7,74.5,29.97,NW,315,8.0,13.0,84,0.00,,,9.90,meteohub,2013-06-03 23:47:00,
2013-06-03 19:52:00,79.7,74.8,29.97,SW,225,9.0,13.0,85,0.00,,,9.90,meteohub,2013-06-03 23:52:00,
2013-06-03 19:53:00,79.7,74.8,29.97,SW,225,8.0,13.0,85,0.00,,,9.90,meteohub,2013-06-03 23:53:00,
2013-06-03 19:54:00,79.7,74.8,29.97,South,180,7.0,13.0,85,0.00,,,9.90,meteohub,2013-06-03 23:54:00,
2013-06-03 19:57:00,79.5,74.3,29.96,NW,315,12.0,12.0,84,0.00,,,9.90,meteohub,2013-06-03 23:57:00,
2013-06-03 19:58:00,79.5,74.3,29.97,SW,225,10.0,11.0,84,0.00,,,9.90,meteohub,2013-06-03 23:58:00,
2013-06-03 20:02:00,79.5,74.3,29.97,SW,225,14.0,14.0,84,0.00,,,9.90,meteohub,2013-06-04 00:02:00,
2013-06-03 20:04:00,79.5,74.7,29.97,SW,225,14.0,14.0,85,0.00,,,9.90,meteohub,2013-06-04 00:04:00,
2013-06-03 20:05:00,79.5,74.7,29.96,NW,315,7.0,14.0,85,0.00,,,9.90,meteohub,2013-06-04 00:05:00,
2013-06-03 20:07:00,79.5,74.7,29.97,SW,225,6.0,14.0,85,0.00,,,9.90,meteohub,2013-06-04 00:07:00,
2013-06-03 20:08:00,79.5,74.7,29.96,SW,225,9.0,14.0,85,0.00,,,9.90,meteohub,2013-06-04 00:08:00,
2013-06-03 20:13:00,79.5,74.7,29.97,SW,225,4.0,14.0,85,0.00,,,9.90,meteohub,2013-06-04 00:13:00,
2013-06-03 20:14:00,79.5,74.7,29.97,SW,225,6.0,14.0,85,0.00,,,9.90,meteohub,2013-06-04 00:14:00,
2013-06-03 20:18:00,79.5,74.7,29.97,SW,225,8.0,14.0,85,0.00,,,9.90,meteohub,2013-06-04 00:18:00,
2013-06-03 20:19:00,79.5,74.7,29.97,NW,315,7.0,14.0,85,0.00,,,9.90,meteohub,2013-06-04 00:19:00,
2013-06-03 20:22:00,79.3,74.5,29.97,West,270,7.0,11.0,85,0.00,,,9.90,meteohub,2013-06-04 00:22:00,
2013-06-03 20:23:00,79.3,74.5,29.98,SW,225,8.0,11.0,85,0.00,,,9.90,meteohub,2013-06-04 00:23:00,
2013-06-03 20:25:00,79.3,74.5,29.98,SW,225,6.0,9.0,85,0.00,,,9.90,meteohub,2013-06-04 00:25:00,
2013-06-03 20:28:00,79.3,74.5,29.97,West,270,5.0,9.0,85,0.00,,,9.90,meteohub,2013-06-04 00:28:00,
2013-06-03 20:30:00,79.3,74.5,29.97,SW,225,7.0,8.0,85,0.00,,,9.90,meteohub,2013-06-04 00:30:00,
2013-06-03 20:31:00,79.3,74.5,29.97,East,90,3.0,8.0,85,0.00,,,9.90,meteohub,2013-06-04 00:31:00,
2013-06-03 20:32:00,79.3,74.5,29.97,East,90,3.0,8.0,85,0.00,,,9.90,meteohub,2013-06-04 00:32:00,
2013-06-03 20:33:00,79.3,74.5,29.97,SW,225,7.0,8.0,85,0.00,,,9.90,meteohub,2013-06-04 00:33:00,
2013-06-03 20:35:00,79.3,74.5,29.97,SW,225,6.0,8.0,85,0.00,,,9.90,meteohub,2013-06-04 00:35:00,
2013-06-03 20:37:00,79.3,74.5,29.97,SW,225,8.0,8.0,85,0.00,,,9.90,meteohub,2013-06-04 00:37:00,
2013-06-03 20:39:00,79.3,74.5,29.97,SW,225,8.0,8.0,85,0.00,,,9.90,meteohub,2013-06-04 00:39:00,
2013-06-03 20:40:00,79.3,74.5,29.97,SW,225,10.0,10.0,85,0.00,,,9.90,meteohub,2013-06-04 00:40:00,
2013-06-03 20:41:00,79.3,74.5,29.97,South,180,8.0,9.0,85,0.00,,,9.90,meteohub,2013-06-04 00:41:00,
2013-06-03 20:42:00,79.3,74.5,29.97,SW,225,9.0,9.0,85,0.00,,,9.90,meteohub,2013-06-04 00:42:00,
2013-06-03 20:45:00,79.3,74.5,29.97,SW,225,6.0,9.0,85,0.00,,,9.90,meteohub,2013-06-04 00:45:00,
2013-06-03 20:47:00,79.3,74.5,29.97,South,180,6.0,10.0,85,0.00,,,9.90,meteohub,2013-06-04 00:47:00,
2013-06-03 20:48:00,79.3,74.5,29.97,South,180,8.0,10.0,85,0.00,,,9.90,meteohub,2013-06-04 00:48:00,
2013-06-03 20:52:00,79.2,74.7,29.97,West,270,4.0,11.0,86,0.00,,,9.90,meteohub,2013-06-04 00:52:00,
2013-06-03 20:53:00,79.2,74.7,29.98,SW,225,9.0,11.0,86,0.00,,,9.90,meteohub,2013-06-04 00:53:00,
2013-06-03 20:56:00,79.2,74.7,29.97,SW,225,5.0,11.0,86,0.00,,,9.90,meteohub,2013-06-04 00:56:00,
2013-06-03 20:58:00,79.2,74.7,29.97,SW,225,8.0,11.0,86,0.00,,,9.90,meteohub,2013-06-04 00:58:00,
2013-06-03 20:59:00,79.2,74.7,29.97,West,270,9.0,11.0,86,0.00,,,9.90,meteohub,2013-06-04 00:59:00,
2013-06-03 21:00:00,79.2,74.7,29.97,West,270,9.0,11.0,86,0.00,,,9.90,meteohub,2013-06-04 01:00:00,
2013-06-03 21:01:00,79.2,74.7,29.97,SW,225,6.0,9.0,86,0.00,,,9.90,meteohub,2013-06-04 01:01:00,
2013-06-03 21:03:00,79.2,74.7,29.97,SE,135,5.0,9.0,86,0.00,,,9.90,meteohub,2013-06-04 01:03:00,
2013-06-03 21:06:00,79.2,74.7,29.97,NNW,338,8.0,9.0,86,0.00,,,9.90,meteohub,2013-06-04 01:06:00,
2013-06-03 21:08:00,79.2,74.3,29.97,SW,225,12.0,12.0,85,0.00,,,9.90,meteohub,2013-06-04 01:08:00,
2013-06-03 21:09:00,79.2,74.3,29.98,SW,225,12.0,12.0,85,0.00,,,9.90,meteohub,2013-06-04 01:09:00,
2013-06-03 21:10:00,79.2,74.3,29.97,SW,225,8.0,10.0,85,0.00,,,9.90,meteohub,2013-06-04 01:10:00,
2013-06-03 21:11:00,79.2,74.3,29.97,SW,225,11.0,11.0,85,0.00,,,9.90,meteohub,2013-06-04 01:11:00,
2013-06-03 21:12:00,79.2,74.3,29.97,SW,225,11.0,11.0,85,0.00,,,9.90,meteohub,2013-06-04 01:12:00,
2013-06-03 21:14:00,79.2,74.3,29.97,South,180,5.0,10.0,85,0.00,,,9.90,meteohub,2013-06-04 01:14:00,
2013-06-03 21:15:00,79.2,74.3,29.97,South,180,5.0,12.0,85,0.00,,,9.90,meteohub,2013-06-04 01:15:00,
2013-06-03 21:17:00,79.2,74.3,29.97,South,180,9.0,12.0,85,0.00,,,9.90,meteohub,2013-06-04 01:17:00,
2013-06-03 21:18:00,79.2,74.3,29.97,NNW,338,8.0,12.0,85,0.00,,,9.90,meteohub,2013-06-04 01:18:00,
2013-06-03 21:20:00,79.2,74.3,29.97,South,180,8.0,12.0,85,0.00,,,9.90,meteohub,2013-06-04 01:20:00,
2013-06-03 21:23:00,79.2,74.3,29.97,SE,135,5.0,12.0,85,0.00,,,9.90,meteohub,2013-06-04 01:23:00,
2013-06-03 21:24:00,79.2,74.3,29.97,SW,225,4.0,12.0,85,0.00,,,9.90,meteohub,2013-06-04 01:24:00,
2013-06-03 21:25:00,79.3,74.5,29.97,SW,225,5.0,11.0,85,0.00,,,9.90,meteohub,2013-06-04 01:25:00,
2013-06-03 21:28:00,79.3,74.8,29.97,SW,225,12.0,12.0,86,0.00,,,9.90,meteohub,2013-06-04 01:28:00,
2013-06-03 21:29:00,79.3,74.5,29.97,SW,225,14.0,14.0,85,0.00,,,9.90,meteohub,2013-06-04 01:29:00,
2013-06-03 21:30:00,79.3,74.5,29.97,SW,225,8.0,11.0,85,0.00,,,9.90,meteohub,2013-06-04 01:30:00,
2013-06-03 21:32:00,79.3,74.5,29.97,SW,225,11.0,12.0,85,0.00,,,9.90,meteohub,2013-06-04 01:32:00,
2013-06-03 21:35:00,79.3,74.5,29.97,South,180,11.0,12.0,85,0.00,,,9.90,meteohub,2013-06-04 01:35:00,
2013-06-03 21:37:00,79.3,74.8,29.98,South,180,8.0,14.0,86,0.00,,,9.90,meteohub,2013-06-04 01:37:00,
2013-06-03 21:41:00,79.2,74.7,29.98,South,180,10.0,14.0,86,0.00,,,9.90,meteohub,2013-06-04 01:41:00,
2013-06-03 21:42:00,79.2,74.7,29.98,South,180,8.0,14.0,86,0.00,,,9.90,meteohub,2013-06-04 01:42:00,
2013-06-03 21:43:00,79.2,74.7,29.98,SW,225,7.0,14.0,86,0.00,,,9.90,meteohub,2013-06-04 01:43:00,
2013-06-03 21:44:00,79.2,74.3,29.98,SW,225,8.0,14.0,85,0.00,,,9.90,meteohub,2013-06-04 01:44:00,
2013-06-03 21:46:00,79.2,74.3,29.98,SW,225,7.0,11.0,85,0.00,,,9.90,meteohub,2013-06-04 01:46:00,
2013-06-03 21:48:00,79.2,74.3,29.98,SE,135,3.0,11.0,85,0.00,,,9.90,meteohub,2013-06-04 01:48:00,
2013-06-03 21:49:00,79.2,74.3,29.98,NE,45,7.0,11.0,85,0.00,,,9.90,meteohub,2013-06-04 01:49:00,
2013-06-03 21:50:00,79.3,74.5,29.98,South,180,9.0,11.0,85,0.00,,,9.90,meteohub,2013-06-04 01:50:00,
2013-06-03 21:52:00,79.3,74.5,29.99,SW,225,8.0,11.0,85,0.00,,,9.90,meteohub,2013-06-04 01:52:00,
2013-06-03 21:55:00,79.2,74.7,29.99,SW,225,9.0,11.0,86,0.00,,,9.90,meteohub,2013-06-04 01:55:00,
2013-06-03 21:56:00,79.2,74.7,29.99,South,180,8.0,11.0,86,0.00,,,9.90,meteohub,2013-06-04 01:56:00,
2013-06-03 21:57:00,79.2,74.7,29.99,SW,225,7.0,11.0,86,0.00,,,9.90,meteohub,2013-06-04 01:57:00,
2013-06-03 21:58:00,79.2,74.7,29.99,SW,225,7.0,11.0,86,0.00,,,9.90,meteohub,2013-06-04 01:58:00,
2013-06-03 22:00:00,79.2,74.7,30.00,SW,225,4.0,11.0,86,0.00,,,9.90,meteohub,2013-06-04 02:00:00,
2013-06-03 22:01:00,79.2,74.7,30.00,SW,225,5.0,11.0,86,0.00,,,9.90,meteohub,2013-06-04 02:01:00,
2013-06-03 22:02:00,79.2,74.7,30.00,NW,315,5.0,11.0,86,0.00,,,9.90,meteohub,2013-06-04 02:02:00,
2013-06-03 22:05:00,79.2,74.3,30.00,NNW,338,5.0,11.0,85,0.00,,,9.90,meteohub,2013-06-04 02:05:00,
2013-06-03 22:07:00,79.2,74.3,30.00,SW,225,6.0,9.0,85,0.00,,,9.90,meteohub,2013-06-04 02:07:00,
2013-06-03 22:08:00,79.2,74.3,30.00,SW,225,7.0,9.0,85,0.00,,,9.90,meteohub,2013-06-04 02:08:00,
2013-06-03 22:10:00,79.2,74.3,30.00,East,90,3.0,9.0,85,0.00,,,9.90,meteohub,2013-06-04 02:10:00,
2013-06-03 22:12:00,79.2,74.3,30.01,SE,135,3.0,9.0,85,0.00,,,9.90,meteohub,2013-06-04 02:12:00,
2013-06-03 22:13:00,79.2,74.3,30.01,SW,225,6.0,9.0,85,0.00,,,9.90,meteohub,2013-06-04 02:13:00,
2013-06-03 22:14:00,79.2,74.3,30.01,SW,225,6.0,9.0,85,0.00,,,9.90,meteohub,2013-06-04 02:14:00,
2013-06-03 22:15:00,79.2,74.3,30.01,South,180,6.0,9.0,85,0.00,,,9.90,meteohub,2013-06-04 02:15:00,
2013-06-03 22:16:00,79.2,74.3,30.00,NE,45,3.0,9.0,85,0.00,,,9.90,meteohub,2013-06-04 02:16:00,
2013-06-03 22:18:00,79.2,74.3,30.01,SW,225,4.0,9.0,85,0.00,,,9.90,meteohub,2013-06-04 02:18:00,
2013-06-03 22:19:00,79.2,74.3,30.01,SW,225,4.0,9.0,85,0.00,,,9.90,meteohub,2013-06-04 02:19:00,
2013-06-03 22:20:00,79.2,74.3,30.01,SW,225,4.0,9.0,85,0.00,,,9.90,meteohub,2013-06-04 02:20:00,
2013-06-03 22:21:00,79.2,74.3,30.01,SW,225,4.0,9.0,85,0.00,,,9.90,meteohub,2013-06-04 02:21:00,
2013-06-03 22:24:00,79.2,74.3,30.01,South,180,4.0,9.0,85,0.00,,,9.90,meteohub,2013-06-04 02:24:00,
2013-06-03 22:26:00,79.2,74.3,30.01,SW,225,3.0,6.0,85,0.00,,,9.90,meteohub,2013-06-04 02:26:00,
2013-06-03 22:27:00,79.2,73.9,30.02,SW,225,4.0,6.0,84,0.00,,,9.90,meteohub,2013-06-04 02:27:00,
2013-06-03 22:31:00,79.2,74.3,30.01,South,180,3.0,6.0,85,0.00,,,9.90,meteohub,2013-06-04 02:31:00,
2013-06-03 22:32:00,79.2,74.3,30.01,South,180,3.0,6.0,85,0.00,,,9.90,meteohub,2013-06-04 02:32:00,
2013-06-03 22:33:00,79.2,74.3,30.01,South,180,3.0,6.0,85,0.00,,,9.90,meteohub,2013-06-04 02:33:00,
2013-06-03 22:34:00,79.2,74.3,30.01,South,180,3.0,6.0,85,0.00,,,9.90,meteohub,2013-06-04 02:34:00,
2013-06-03 22:37:00,79.2,74.3,30.01,SW,225,5.0,7.0,85,0.00,,,9.90,meteohub,2013-06-04 02:37:00,
2013-06-03 22:38:00,79.2,74.3,30.02,South,180,4.0,7.0,85,0.00,,,9.90,meteohub,2013-06-04 02:38:00,
2013-06-03 22:39:00,79.2,74.3,30.02,SW,225,4.0,7.0,85,0.00,,,9.90,meteohub,2013-06-04 02:39:00,
2013-06-03 22:40:00,79.2,74.3,30.02,SW,225,4.0,7.0,85,0.00,,,9.90,meteohub,2013-06-04 02:40:00,
2013-06-03 22:42:00,79.2,74.3,30.02,SW,225,6.0,7.0,85,0.00,,,9.90,meteohub,2013-06-04 02:42:00,
2013-06-03 22:43:00,79.2,74.3,30.02,SW,225,4.0,7.0,85,0.00,,,9.90,meteohub,2013-06-04 02:43:00,
2013-06-03 22:45:00,79.2,74.3,30.02,West,270,4.0,7.0,85,0.00,,,9.90,meteohub,2013-06-04 02:45:00,
2013-06-03 22:47:00,79.2,74.3,30.02,SW,225,3.0,7.0,85,0.00,,,9.90,meteohub,2013-06-04 02:47:00,
2013-06-03 22:49:00,79.2,74.3,30.02,West,270,4.0,7.0,85,0.00,,,9.90,meteohub,2013-06-04 02:49:00,
2013-06-03 22:51:00,79.2,74.3,30.02,WSW,248,4.0,6.0,85,0.00,,,9.90,meteohub,2013-06-04 02:51:00,
2013-06-03 22:52:00,79.2,74.3,30.02,SW,225,9.0,9.0,85,0.00,,,9.90,meteohub,2013-06-04 02:52:00,
2013-06-03 22:55:00,79.2,74.3,30.02,West,270,6.0,9.0,85,0.00,,,9.90,meteohub,2013-06-04 02:55:00,
2013-06-03 22:57:00,79.2,73.9,30.02,South,180,6.0,9.0,84,0.00,,,9.90,meteohub,2013-06-04 02:57:00,
2013-06-03 22:58:00,79.2,73.9,30.02,SW,225,8.0,9.0,84,0.00,,,9.90,meteohub,2013-06-04 02:58:00,
2013-06-03 22:59:00,79.2,73.9,30.02,SW,225,10.0,10.0,84,0.00,,,9.90,meteohub,2013-06-04 02:59:00,
2013-06-03 23:00:00,79.2,73.9,30.02,SW,225,6.0,9.0,84,0.00,,,9.90,meteohub,2013-06-04 03:00:00,
2013-06-03 23:02:00,79.2,73.9,30.02,West,270,6.0,9.0,84,0.00,,,9.90,meteohub,2013-06-04 03:02:00,
2013-06-03 23:03:00,79.2,73.9,30.03,South,180,4.0,9.0,84,0.00,,,9.90,meteohub,2013-06-04 03:03:00,
2013-06-03 23:05:00,79.3,74.1,30.02,SW,225,7.0,10.0,84,0.00,,,9.90,meteohub,2013-06-04 03:05:00,
2013-06-03 23:07:00,79.3,74.1,30.02,SW,225,7.0,10.0,84,0.00,,,9.90,meteohub,2013-06-04 03:07:00,
2013-06-03 23:08:00,79.3,74.1,30.02,SW,225,4.0,10.0,84,0.00,,,9.90,meteohub,2013-06-04 03:08:00,
2013-06-03 23:09:00,79.3,74.1,30.02,WNW,293,8.0,10.0,84,0.00,,,9.90,meteohub,2013-06-04 03:09:00,
2013-06-03 23:11:00,79.3,73.8,30.02,South,180,5.0,10.0,83,0.00,,,9.90,meteohub,2013-06-04 03:11:00,
2013-06-03 23:12:00,79.3,73.8,30.02,South,180,5.0,10.0,83,0.00,,,9.90,meteohub,2013-06-04 03:12:00,
2013-06-03 23:13:00,79.3,73.8,30.02,SW,225,7.0,10.0,83,0.00,,,9.90,meteohub,2013-06-04 03:13:00,
2013-06-03 23:14:00,79.3,73.8,30.02,South,180,6.0,10.0,83,0.00,,,9.90,meteohub,2013-06-04 03:14:00,
2013-06-03 23:16:00,79.3,73.8,30.02,SW,225,4.0,9.0,83,0.00,,,9.90,meteohub,2013-06-04 03:16:00,
2013-06-03 23:17:00,79.3,73.8,30.02,SE,135,5.0,9.0,83,0.00,,,9.90,meteohub,2013-06-04 03:17:00,
2013-06-03 23:19:00,79.5,73.9,30.02,West,270,4.0,9.0,83,0.00,,,9.90,meteohub,2013-06-04 03:19:00,
2013-06-03 23:22:00,79.5,73.9,30.02,WNW,293,5.0,9.0,83,0.00,,,9.90,meteohub,2013-06-04 03:22:00,
2013-06-03 23:24:00,79.5,73.9,30.03,SW,225,6.0,9.0,83,0.00,,,9.90,meteohub,2013-06-04 03:24:00,
2013-06-03 23:25:00,79.5,73.9,30.02,SW,225,7.0,9.0,83,0.00,,,9.90,meteohub,2013-06-04 03:25:00,
2013-06-03 23:27:00,79.5,73.9,30.02,South,180,5.0,9.0,83,0.00,,,9.90,meteohub,2013-06-04 03:27:00,
2013-06-03 23:28:00,79.5,73.9,30.02,SW,225,4.0,9.0,83,0.00,,,9.90,meteohub,2013-06-04 03:28:00,
2013-06-03 23:29:00,79.5,73.9,30.02,South,180,2.0,9.0,83,0.00,,,9.90,meteohub,2013-06-04 03:29:00,
2013-06-03 23:32:00,79.5,74.3,30.02,SW,225,8.0,8.0,84,0.00,,,9.90,meteohub,2013-06-04 03:32:00,
2013-06-03 23:34:00,79.5,74.3,30.03,SE,135,4.0,8.0,84,0.00,,,9.90,meteohub,2013-06-04 03:34:00,
2013-06-03 23:35:00,79.5,74.3,30.02,SW,225,3.0,8.0,84,0.00,,,9.90,meteohub,2013-06-04 03:35:00,
2013-06-03 23:37:00,79.5,74.3,30.02,South,180,5.0,8.0,84,0.00,,,9.90,meteohub,2013-06-04 03:37:00,
2013-06-03 23:40:00,79.5,74.3,30.02,SW,225,4.0,8.0,84,0.00,,,9.90,meteohub,2013-06-04 03:40:00,
2013-06-03 23:41:00,79.5,74.3,30.02,South,180,5.0,8.0,84,0.00,,,9.90,meteohub,2013-06-04 03:41:00,
2013-06-03 23:44:00,79.5,74.3,30.03,SW,225,5.0,8.0,84,0.00,,,9.90,meteohub,2013-06-04 03:44:00,
2013-06-03 23:45:00,79.5,74.3,30.02,South,180,3.0,8.0,84,0.00,,,9.90,meteohub,2013-06-04 03:45:00,
2013-06-03 23:46:00,79.5,74.3,30.02,South,180,6.0,8.0,84,0.00,,,9.90,meteohub,2013-06-04 03:46:00,
2013-06-03 23:49:00,79.3,74.1,30.02,NW,315,3.0,8.0,84,0.00,,,9.90,meteohub,2013-06-04 03:49:00,
2013-06-03 23:50:00,79.3,74.1,30.02,SW,225,3.0,7.0,84,0.00,,,9.90,meteohub,2013-06-04 03:50:00,
2013-06-03 23:52:00,79.3,74.5,30.03,SW,225,5.0,7.0,85,0.00,,,9.90,meteohub,2013-06-04 03:52:00,
2013-06-03 23:53:00,79.3,74.5,30.02,SW,225,6.0,7.0,85,0.00,,,9.90,meteohub,2013-06-04 03:53:00,
2013-06-03 23:56:00,79.3,74.5,30.02,South,180,4.0,7.0,85,0.00,,,9.90,meteohub,2013-06-04 03:56:00,
2013-06-03 23:57:00,79.3,74.5,30.02,South,180,2.0,7.0,85,0.00,,,9.90,meteohub,2013-06-04 03:57:00,
2013-06-03 23:58:00,79.3,74.5,30.02,West,270,4.0,7.0,85,0.00,,,9.90,meteohub,2013-06-04 03:58:00,